GFSFLT1_500_spd_000.txt.gz
Wind_Speed
19 20 21 24 26 28 30 32 36 40 41 41 45 45 46 47 49 51 53 54 56 57 58 57 58 59 59 59 58 60 63 64
24 27 29 32 34 37 41 43 44 44 45 48 49 51 52 53 55 57 56 55 57 59 61 60 62 62 61 61 63 65 68 70
28 28 34 35 34 37 40 44 46 48 49 52 55 55 55 56 57 58 60 60 60 60 61 63 63 61 61 63 65 67 69 71
31 28 28 29 33 33 34 37 44 49 52 54 55 57 56 56 59 59 59 60 61 61 62 63 64 63 63 64 67 69 70 72
30 31 32 32 32 34 35 38 43 47 49 51 56 58 60 61 60 59 60 61 61 62 62 62 62 65 67 68 69 69 65 64
33 37 39 40 42 45 46 48 48 52 53 53 57 57 55 56 57 58 59 59 57 58 63 66 67 66 66 70 72 72 67 65
43 46 49 48 51 48 47 49 52 54 57 58 55 57 59 61 60 59 60 61 64 67 66 65 67 69 69 69 69 69 69 68
46 51 50 55 54 52 53 54 57 58 60 61 61 59 61 60 61 62 66 68 69 67 68 68 67 67 65 62 68 66 67 70
49 51 54 54 57 60 59 59 60 61 61 61 62 62 61 61 63 67 67 69 71 71 70 68 65 62 64 65 66 61 65 71
47 51 51 54 57 58 59 57 56 58 60 62 62 63 64 66 68 70 69 70 70 69 67 60 64 54 62 68 69 69 71 70
49 52 56 53 53 53 53 57 59 62 64 65 66 68 70 71 72 74 75 76 76 71 62 58 60 65 70 71 69 70 70 67
53 54 53 55 56 55 57 59 61 63 65 67 69 71 72 74 77 79 79 79 76 68 62 58 59 61 66 68 68 66 65 63
52 51 52 54 56 60 60 61 65 68 68 68 70 73 76 79 79 80 79 76 70 62 57 55 56 58 59 60 61 61 60 60
55 53 52 59 63 61 63 66 67 69 72 75 75 76 77 76 79 78 73 66 60 54 51 51 51 53 55 57 57 57 58 60
58 56 57 65 63 66 69 72 74 75 75 77 77 78 78 78 76 72 62 56 52 49 48 49 50 50 52 55 56 56 57 58
58 58 62 66 68 72 77 80 79 79 79 79 80 81 79 76 72 64 54 48 48 47 47 48 49 53 53 52 54 56 57 56
62 67 65 67 74 80 81 79 79 81 82 84 84 82 75 70 62 54 49 49 47 48 48 50 53 51 51 54 56 55 53 53
66 67 69 75 78 79 80 82 82 83 86 87 84 77 64 52 49 48 48 47 47 46 50 53 50 50 53 55 54 52 52 40
66 71 74 74 78 80 83 83 85 87 89 85 77 64 55 48 45 45 46 46 45 49 51 50 49 52 54 52 52 48 34 27

GFSFLT1_500_spd_003.txt.gz
Wind_Speed
20 21 25 30 33 36 36 37 40 42 43 45 48 50 50 50 52 54 55 57 58 58 59 60 62 62 61 60 60 61 62 62
26 25 25 27 31 32 34 36 39 43 45 47 48 50 51 53 55 56 56 58 60 61 61 61 62 60 61 61 62 63 64 64
25 27 29 30 31 31 32 34 39 44 46 48 49 51 52 53 55 59 62 64 64 63 61 60 61 62 62 61 60 59 60 61
30 29 26 29 30 33 36 40 44 48 49 52 52 52 55 55 56 58 60 62 62 63 63 62 61 60 60 60 60 59 60 62
28 26 30 32 33 38 41 44 49 51 51 52 54 56 57 57 59 60 60 60 61 62 61 59 60 62 66 66 66 65 65 63
30 30 34 36 41 43 47 52 54 53 54 56 59 60 59 57 57 57 58 59 59 59 60 62 64 65 66 69 67 67 67 67
34 40 39 41 47 49 52 54 57 59 59 60 59 58 58 59 61 62 62 63 64 66 67 68 65 65 64 65 66 67 70 70
42 41 46 48 52 55 56 58 58 57 57 56 56 57 59 61 63 65 67 69 69 67 68 69 70 67 67 67 68 67 67 68
47 48 49 51 54 55 57 56 57 57 58 59 61 63 64 67 70 71 71 72 74 75 76 76 75 71 66 65 64 66 65 65
49 49 48 53 53 53 55 54 53 57 60 63 64 66 69 71 72 74 76 79 81 81 79 75 72 68 67 61 66 61 68 71
46 48 50 52 52 57 55 57 60 63 65 67 69 70 71 74 77 81 83 84 83 81 78 75 70 65 61 56 64 67 67 68
47 48 49 51 57 59 59 61 64 67 69 69 71 76 80 78 78 78 77 79 79 77 72 69 65 61 57 58 62 64 69 72
43 48 53 57 59 60 61 63 66 68 70 74 80 80 82 81 82 81 80 76 72 69 65 61 58 54 52 52 54 57 58 59
52 55 59 58 62 65 67 73 74 75 78 82 83 83 82 83 80 81 74 70 65 59 55 52 48 48 50 51 52 53 54 54
56 57 59 59 58 64 70 74 77 80 83 84 85 86 87 86 88 88 76 64 53 49 48 47 48 49 48 48 47 49 54 56
56 59 60 60 60 65 73 77 78 81 84 86 87 93 89 86 86 81 64 51 46 46 45 45 45 46 47 47 50 53 52 54
59 60 60 64 69 73 77 82 84 86 86 87 88 86 87 87 84 60 47 45 43 49 50 48 46 45 47 50 50 50 53 53
59 63 69 73 73 75 81 86 89 88 87 84 83 88 88 67 51 46 45 46 48 48 47 44 44 47 49 49 50 51 51 49
65 69 72 73 73 74 84 88 89 92 90 83 88 85 75 52 46 44 44 46 46 45 45 46 49 49 48 49 50 49 46 48

GFSFLT1_500_spd_009.txt.gz
Wind_Speed
20 24 28 30 32 33 37 39 40 40 42 43 46 45 48 46 49 50 50 50 50 50 49 48 50 50 51 51 52 51 51 52
26 29 30 32 34 36 38 40 41 42 44 48 48 50 53 52 51 51 50 50 51 53 55 55 55 56 55 56 58 58 58 57
30 32 33 35 34 36 38 38 41 46 48 49 50 52 52 52 51 51 53 54 55 54 54 56 57 58 58 58 58 60 61 62
32 32 34 35 35 38 39 41 45 48 49 52 52 51 52 52 53 55 56 56 57 58 59 61 61 62 63 63 64 65 65 65
30 33 33 35 38 40 42 45 49 50 49 49 51 53 53 54 58 59 60 61 63 63 64 65 66 67 67 69 70 69 70 70
32 33 35 39 42 43 45 47 48 49 50 52 54 56 57 60 62 63 64 65 66 67 68 68 69 70 70 72 74 73 70 72
34 36 40 42 44 45 46 47 49 51 54 56 57 59 62 65 67 69 70 71 71 74 77 75 75 76 77 76 76 77 75 74
39 41 42 41 42 44 47 48 50 53 56 58 61 65 68 69 71 73 75 76 77 79 80 82 81 80 79 78 77 76 76 77
40 42 44 47 48 50 51 52 56 60 61 65 69 71 73 74 75 75 76 79 81 84 86 87 87 83 81 82 81 81 80 77
43 45 48 49 51 53 55 60 63 65 67 70 73 74 76 78 78 79 81 85 87 88 88 89 90 90 90 92 90 85 76 72
44 48 50 51 55 57 60 65 67 69 72 73 75 77 78 79 80 83 85 81 85 89 90 92 94 97 98 91 79 70 63 56
48 50 51 54 58 63 66 69 71 73 75 76 77 79 80 81 84 86 82 87 89 92 97 100 103 89 72 67 62 54 49 48
50 50 54 59 63 66 70 72 75 76 76 77 78 81 85 85 85 86 87 86 94 97 93 89 76 59 52 45 46 48 49 47
52 56 61 63 66 69 71 74 76 77 78 80 79 81 81 85 83 89 95 100 103 93 80 60 50 45 42 44 46 49 49 47
58 60 63 66 68 69 72 74 76 81 79 80 82 86 84 82 88 94 99 95 89 64 50 44 42 42 44 46 47 47 50 51
60 63 67 69 70 73 77 80 83 82 78 80 84 82 84 92 95 99 84 72 55 47 45 45 46 46 48 49 49 48 47 46
65 68 71 72 75 79 82 83 82 78 78 82 85 91 95 95 95 76 58 48 46 47 47 46 46 46 46 45 45 44 44 44
70 71 74 79 80 82 82 84 85 84 83 87 90 89 88 81 66 53 49 49 48 46 45 44 45 46 47 48 48 47 47 48
73 74 76 79 87 85 88 88 87 88 88 90 86 79 68 60 51 52 52 49 48 49 51 52 53 53 53 53 52 51 50 50

GFSFLT1_500_spd_012.txt.gz
Wind_Speed
20 23 27 31 33 35 37 38 37 40 42 42 42 45 47 48 50 51 50 50 49 49 49 51 53 54 55 56 56 57 56 55
24 27 31 33 34 36 39 39 40 43 45 46 48 50 52 51 52 53 52 53 52 53 53 55 57 59 59 60 62 62 62 61
28 32 34 36 36 38 40 40 42 45 48 50 52 54 53 52 53 54 54 54 56 57 60 62 63 65 66 65 66 66 65 63
31 34 35 37 38 41 42 43 46 49 52 53 54 54 54 55 56 58 59 62 63 65 67 68 69 70 71 71 71 72 72 69
33 33 36 38 42 43 44 47 50 52 52 52 53 54 55 58 60 62 63 65 66 69 71 73 73 73 73 74 74 74 75 72
34 36 38 43 45 46 48 48 48 50 52 53 55 56 59 63 64 65 67 70 72 73 75 76 76 75 74 74 75 77 80 78
37 39 43 45 45 45 45 47 50 52 53 54 56 61 65 67 68 70 73 75 76 76 76 76 76 78 79 82 81 79 79 80
41 42 42 43 42 44 47 52 54 54 57 60 63 67 69 70 72 74 75 76 77 79 80 81 83 83 84 83 83 83 82 80
40 42 41 44 47 51 54 54 55 58 61 65 69 69 71 73 73 73 75 79 81 82 82 84 84 85 82 85 89 92 91 92
39 43 45 49 53 55 56 56 59 62 65 68 69 71 74 76 76 79 82 82 82 82 84 82 85 84 85 87 93 93 93 88
43 46 50 53 54 56 57 60 63 66 68 71 73 75 78 80 83 84 83 82 83 84 83 85 84 91 96 91 84 78 63 58
43 47 50 53 56 58 61 64 67 69 72 74 77 80 82 84 83 82 83 84 86 87 85 86 95 93 80 69 54 50 47 46
46 49 54 57 59 62 65 67 68 71 75 77 80 84 85 85 83 78 83 88 89 90 90 86 77 65 54 46 44 46 48 47
52 55 57 59 63 66 69 71 74 78 80 80 88 89 86 84 86 87 88 87 85 81 70 61 49 45 43 44 46 47 48 49
56 58 62 65 68 70 73 76 79 79 75 87 96 91 90 88 89 88 86 79 70 63 52 48 46 46 46 46 48 49 49 49
59 63 68 72 73 74 76 76 81 78 78 97 97 93 92 92 88 83 73 63 54 50 50 50 48 46 44 44 45 46 46 46
64 70 75 78 78 77 77 76 78 84 94 94 93 92 90 87 80 66 60 52 51 52 49 49 49 50 48 49 48 49 50 50
73 76 79 78 76 78 77 80 89 95 92 91 90 87 83 74 63 56 50 51 51 50 52 53 55 55 53 53 53 52 53 53
76 78 77 75 73 76 81 87 89 90 88 86 83 78 68 60 52 48 50 50 52 54 56 57 56 55 53 53 52 52 51 51

GFSFLT1_500_spd_015.txt.gz
Wind_Speed
21 24 27 29 31 35 37 39 41 42 45 45 47 49 52 52 53 53 54 53 52 54 55 56 57 57 58 58 60 60 62 64
25 27 29 32 35 38 41 42 42 46 48 49 51 54 56 56 57 57 56 55 55 56 59 60 61 62 63 64 66 67 67 68
27 30 33 36 39 41 43 45 46 49 50 51 54 56 58 58 58 59 60 58 59 62 64 66 66 67 69 71 72 72 71 72
30 34 37 40 42 43 46 47 48 50 52 54 57 58 58 58 59 59 59 61 64 67 68 68 70 72 74 74 75 74 74 73
34 37 40 42 42 45 47 50 51 52 53 56 55 56 58 58 60 61 62 66 69 70 71 72 73 74 74 75 75 76 76 75
37 40 43 43 45 47 51 52 52 51 52 54 56 57 58 60 63 65 68 70 71 72 73 73 74 75 77 79 79 78 78 79
41 43 44 45 47 49 48 48 48 52 54 56 57 58 60 63 66 69 71 72 73 73 75 76 78 79 78 78 77 77 77 79
42 44 46 47 45 45 45 48 53 56 56 58 60 63 65 68 71 73 74 73 74 77 79 79 78 78 79 79 80 81 80 81
42 43 43 43 45 48 49 53 56 58 61 62 65 68 71 72 75 77 76 75 78 82 81 80 81 81 83 84 85 87 87 85
40 40 44 43 47 51 52 55 58 61 63 65 68 70 72 73 77 81 83 84 85 91 86 84 83 81 82 88 92 93 93 87
40 41 44 47 50 53 57 58 60 65 69 73 75 75 75 77 77 82 83 84 93 91 87 85 82 83 86 83 77 72 68 63
43 45 47 48 52 56 59 63 67 71 74 75 76 79 80 82 85 82 85 92 93 92 88 84 80 74 68 64 56 51 50 48
45 47 51 54 58 60 64 69 74 78 79 80 79 80 81 83 85 99 94 94 91 88 83 75 66 57 50 49 48 47 47 47
46 48 52 58 63 66 71 76 79 81 80 79 77 80 81 88 94 95 93 90 84 77 66 60 52 48 49 50 50 48 47 48
49 54 59 62 68 74 78 81 81 80 78 76 80 84 87 88 90 91 89 82 73 64 55 49 48 50 49 48 49 49 49 49
55 59 63 69 73 77 79 79 78 77 78 79 82 84 86 87 87 84 76 68 61 54 50 50 51 51 52 51 53 52 53 53
59 63 69 75 79 81 82 79 80 81 82 83 85 85 84 83 80 73 65 61 52 50 51 52 53 55 56 55 55 53 52 50
66 72 77 80 81 81 82 83 83 84 86 85 82 84 82 78 71 64 62 53 50 51 52 53 57 58 56 53 52 51 49 48
73 77 78 78 78 80 82 83 84 85 86 84 83 81 77 70 64 62 55 50 50 52 54 58 59 57 55 50 49 48 46 45

GFSFLT1_500_spd_018.txt.gz
Wind_Speed
27 22 26 28 28 33 37 40 40 42 46 45 49 51 52 53 54 57 55 56 54 55 55 54 54 55 57 59 60 61 62 63
27 26 28 31 32 35 39 41 45 46 49 51 52 54 56 58 59 59 57 59 57 58 58 59 60 63 64 66 66 65 66 68
28 30 31 33 36 39 42 44 47 48 51 53 54 56 58 58 58 59 60 61 60 60 61 65 66 67 69 70 70 70 70 71
30 31 34 36 40 43 45 47 47 49 53 56 55 55 56 57 59 61 63 62 63 65 69 70 70 72 73 73 75 75 76 74
34 34 37 41 43 45 46 49 51 51 52 53 53 53 57 60 61 62 63 65 68 71 72 73 73 75 75 77 76 75 76 76
37 39 42 43 43 45 48 50 53 53 51 52 54 57 58 60 62 64 66 68 72 74 76 77 77 79 80 81 81 80 79 78
41 42 46 45 44 45 48 49 49 53 55 52 53 58 60 61 64 67 70 74 75 76 79 80 80 79 77 79 82 85 83 82
41 43 45 50 49 46 45 44 48 51 54 58 63 63 65 69 73 76 76 77 78 80 82 84 85 84 81 86 90 89 89 88
44 45 45 44 45 47 47 48 51 54 57 60 63 67 72 75 77 80 80 80 80 82 83 84 87 92 91 96 93 89 86 85
44 43 43 42 42 46 49 51 54 56 60 63 67 72 77 79 80 80 80 79 79 83 88 90 91 91 92 89 85 80 75 71
41 41 40 43 45 47 49 52 57 61 65 71 77 80 83 82 80 79 79 78 81 82 84 88 88 87 84 77 67 58 52 49
38 42 42 44 47 50 55 59 63 69 76 80 82 83 83 82 79 79 79 80 81 83 84 83 80 73 65 59 53 48 45 45
37 41 45 49 53 57 62 66 71 76 80 82 84 82 81 80 79 81 81 81 81 82 80 73 64 58 53 48 46 46 47 47
41 44 47 52 57 62 68 75 79 81 84 83 81 80 81 81 82 82 82 81 81 77 69 61 56 51 48 48 47 49 50 50
46 50 54 59 63 70 76 80 85 86 84 81 81 82 84 80 83 83 82 79 74 66 61 57 50 47 48 48 50 53 53 53
51 56 61 66 72 77 81 84 85 86 88 87 87 88 90 83 85 82 77 73 67 63 58 51 49 49 50 51 55 56 55 52
56 62 67 73 77 82 85 86 88 89 87 90 91 92 89 83 81 75 72 69 65 55 48 47 48 50 52 55 56 54 51 48
64 69 73 78 82 84 85 85 84 85 85 87 89 83 84 75 74 71 71 64 51 44 45 47 49 52 56 56 52 50 48 46
68 72 76 80 83 85 85 83 83 85 84 86 84 83 68 76 75 71 59 47 40 43 46 48 50 55 57 54 50 49 47 45

GFSFLT1_500_spd_021.txt.gz
Wind_Speed
25 24 23 27 29 30 35 37 40 41 45 46 47 50 50 53 57 56 54 54 53 55 58 59 59 58 57 59 60 61 63 63
28 29 29 29 33 36 36 39 42 45 48 49 51 52 55 57 58 57 57 57 58 57 57 59 62 62 63 65 67 68 69 71
30 31 32 34 35 38 39 42 45 48 49 50 52 54 56 54 54 56 58 60 60 62 63 64 65 68 70 72 73 74 75 77
29 31 35 36 39 41 44 46 47 49 51 51 52 51 50 52 54 56 59 61 61 64 67 69 73 76 78 80 80 80 79 79
25 33 37 40 42 44 45 47 46 47 49 50 50 49 51 53 55 58 60 63 67 70 74 78 79 81 82 82 83 84 84 84
33 36 38 41 41 43 46 48 50 50 47 46 47 49 52 54 57 60 64 68 73 77 80 82 82 83 83 83 84 84 84 84
40 40 41 41 41 41 42 44 47 51 51 52 52 51 53 56 60 66 72 76 79 82 84 84 84 82 83 83 83 84 84 84
42 43 46 46 44 41 42 41 43 47 50 51 54 59 63 67 73 77 80 82 85 86 85 85 84 85 85 84 83 84 87 87
44 46 44 44 43 43 43 44 46 47 50 55 58 63 68 73 79 82 83 85 84 81 81 81 81 82 82 82 82 83 84 83
41 38 38 37 37 40 42 44 46 51 56 61 66 72 76 80 84 85 84 81 81 79 81 82 82 83 83 82 79 74 69 63
37 37 39 40 41 42 46 51 56 60 65 71 76 80 83 86 86 83 81 81 81 81 81 83 83 81 77 71 63 57 52 49
34 34 37 39 42 46 51 56 62 67 70 75 80 84 87 88 86 81 82 82 82 83 81 77 74 69 63 60 56 49 43 44
33 37 40 44 49 53 58 62 67 72 76 81 84 86 87 85 79 78 80 83 82 78 73 69 66 63 60 55 47 42 43 45
37 41 43 48 52 56 62 67 72 76 80 84 87 88 89 90 89 90 91 89 85 68 69 68 64 58 51 43 41 43 44 46
41 44 49 53 57 62 68 72 77 81 86 88 90 90 90 88 91 90 87 83 74 70 72 63 52 44 39 39 42 44 47 51
45 49 54 58 62 68 73 77 80 84 87 89 91 89 89 91 86 82 76 65 65 66 68 49 43 40 40 42 44 49 53 53
49 53 57 62 68 72 76 81 86 89 90 93 90 89 89 84 77 64 53 54 62 71 49 42 42 41 44 46 50 52 52 50
53 57 63 68 73 78 83 86 89 90 90 90 90 88 85 80 72 67 59 54 60 51 37 40 42 44 47 51 52 50 49 47
58 63 69 74 78 81 84 87 88 89 89 91 90 85 77 71 66 55 39 49 56 36 36 42 43 46 51 51 50 48 46 46

GFSFLT1_500_spd_024.txt.gz
Wind_Speed
19 18 21 24 24 26 31 35 36 40 44 47 42 43 49 50 51 52 51 50 50 51 49 50 51 52 52 53 56 59 61 63
27 26 27 26 30 34 35 41 46 47 49 49 48 53 53 53 53 52 51 52 52 54 56 56 56 58 60 64 66 68 70 71
24 25 25 28 31 36 42 45 48 50 52 52 54 54 55 54 53 54 56 57 58 59 60 63 66 70 73 75 77 77 79 79
25 25 28 30 33 37 41 45 48 49 51 52 53 52 52 51 52 54 56 58 60 63 67 72 75 79 81 83 84 85 86 84
22 23 27 33 36 37 40 44 48 51 52 52 51 51 51 53 54 55 59 61 64 69 74 77 80 83 86 87 88 87 87 86
23 32 33 35 38 40 44 48 49 50 48 45 45 46 48 49 52 56 60 65 70 75 79 82 84 85 85 85 84 83 84 85
33 40 39 40 44 46 52 51 48 45 44 43 42 44 49 54 59 64 69 74 78 82 85 87 88 89 87 85 83 83 85 86
33 34 37 44 46 43 40 38 39 38 38 41 47 52 58 63 67 72 78 82 86 89 89 90 88 85 84 84 84 85 86 87
38 43 47 49 42 36 31 31 32 36 40 46 52 57 63 69 73 78 83 87 90 92 91 89 87 85 85 87 88 88 86 85
46 47 40 38 34 34 35 38 42 45 51 57 62 66 70 75 80 85 88 90 91 91 89 87 88 87 86 85 82 77 72 68
33 31 33 33 35 39 42 47 50 55 59 63 68 72 77 81 84 87 89 88 88 87 88 87 85 82 79 69 71 67 63 60
33 39 37 39 41 43 47 51 56 60 64 69 73 77 81 85 87 88 89 88 88 90 91 92 82 70 66 67 68 57 51 47
34 35 38 40 44 47 52 55 59 63 69 73 77 82 86 88 90 90 90 92 93 91 85 72 68 59 63 70 76 48 44 42
37 38 39 43 47 50 54 59 64 69 73 78 82 86 88 92 93 95 94 94 91 63 64 69 60 63 62 74 54 47 46 46
37 39 43 46 50 54 59 63 68 72 77 81 84 88 93 96 97 95 95 88 79 69 61 57 56 57 68 59 48 48 47 49
39 43 46 50 54 58 64 67 71 75 79 84 89 93 95 96 97 95 90 79 72 64 51 53 54 58 57 48 48 49 51 54
44 47 50 53 58 63 67 70 73 79 84 89 92 93 94 95 94 88 79 69 59 39 40 47 46 46 45 46 48 51 52 52
47 49 52 57 62 66 69 73 78 82 87 89 91 92 93 91 88 76 61 51 41 31 42 47 45 43 43 46 51 50 50 47
49 52 57 60 65 68 71 76 80 84 87 89 90 90 90 87 71 54 41 31 24 27 32 35 39 41 44 48 47 48 44 43

GFSFLT1_500_spd_027.txt.gz
Wind_Speed
15 17 18 20 21 19 23 27 29 38 32 44 46 48 42 43 49 54 53 51 49 48 47 46 47 49 50 53 56 58 61 62
17 20 20 22 22 24 27 30 39 43 47 45 49 48 53 53 55 55 53 50 49 48 50 52 55 58 60 62 64 67 69 71
25 26 25 24 26 27 34 39 43 48 50 52 52 54 56 57 56 54 52 51 52 54 57 61 65 68 71 74 76 78 79 81
24 23 21 23 25 31 37 41 45 49 52 54 56 55 55 54 52 50 50 53 57 61 65 69 72 76 79 82 84 86 86 87
29 23 24 25 32 40 44 44 48 52 54 59 58 55 53 52 50 53 56 60 64 67 71 74 77 81 83 86 87 88 89 88
27 32 29 37 39 42 45 46 51 54 54 48 47 46 47 50 52 55 59 63 68 71 75 79 83 86 88 89 90 90 89 87
31 31 34 40 38 37 45 48 54 48 44 43 43 45 48 52 56 61 65 68 73 78 82 86 89 90 89 89 88 88 88 89
28 32 35 34 41 46 48 53 44 38 38 39 43 47 52 57 61 67 71 76 81 85 87 88 90 90 90 90 90 89 90 90
30 34 40 47 48 49 52 39 35 37 40 44 48 54 58 63 68 72 77 80 84 88 91 93 95 94 94 95 96 94 87 79
40 44 43 42 44 41 34 37 39 42 45 50 55 60 65 69 73 78 81 85 88 91 94 96 97 98 99 98 96 84 74 72
33 35 36 37 34 36 39 41 44 47 52 57 61 66 70 75 78 81 84 89 93 97 99 100 100 99 93 87 71 68 70 65
32 35 36 36 39 42 44 46 50 53 57 62 67 70 74 77 81 85 89 92 96 99 100 99 95 87 68 72 69 66 62 65
38 40 40 42 43 45 47 50 54 57 61 66 69 73 76 80 84 88 92 95 99 99 100 97 86 75 67 59 54 63 65 68
38 41 41 42 44 48 51 54 56 60 64 68 72 74 78 83 87 91 94 99 99 100 98 84 70 63 57 48 46 49 55 52
38 40 42 44 47 51 54 55 59 63 67 70 74 79 85 88 91 95 97 97 98 95 80 65 58 50 43 41 50 53 52 52
39 40 42 45 49 52 55 59 62 65 69 74 80 86 88 90 91 95 96 96 92 75 56 46 36 31 37 45 49 50 50 53
44 44 45 48 52 53 58 63 66 70 75 80 86 87 89 90 93 93 93 89 71 54 40 34 31 33 37 43 46 46 51 49
49 48 49 52 54 58 63 67 70 75 78 82 85 87 88 90 91 91 88 69 53 40 36 35 36 37 40 42 45 49 49 47
49 49 51 53 58 63 67 71 74 78 82 85 86 86 87 88 90 87 72 54 43 34 35 35 37 40 42 43 46 48 44 44

GFSFLT1_500_spd_033.txt.gz
Wind_Speed
15 14 11 13 17 19 19 20 21 27 27 24 32 44 39 40 47 51 56 53 49 47 44 40 39 43 46 49 53 56 58 61
13 14 15 18 20 21 21 21 24 28 24 47 48 46 47 50 52 56 55 48 44 41 41 44 47 52 55 58 62 64 65 67
15 17 19 19 17 16 26 22 32 45 49 49 49 51 52 54 59 57 48 44 43 46 49 53 57 59 61 63 64 66 68 72
18 20 21 22 23 24 27 35 42 43 46 48 51 50 53 61 56 54 51 51 52 54 56 57 59 62 64 67 69 73 78 81
21 21 22 25 25 28 33 40 40 43 46 48 45 52 57 50 49 51 53 54 55 56 58 60 63 66 70 74 79 84 86 89
20 22 21 23 28 31 33 39 42 42 49 47 57 52 50 51 51 53 54 56 58 60 63 65 71 75 78 82 86 90 91 93
21 22 25 28 32 35 37 40 44 49 49 51 50 48 50 52 53 54 56 58 60 64 67 72 76 80 84 88 91 92 93 96
21 23 25 29 31 35 37 40 43 46 47 49 49 50 51 53 54 57 59 60 63 68 72 77 81 85 88 91 91 95 98 102
16 19 21 23 26 30 33 37 40 43 47 49 51 53 53 54 57 58 60 64 68 73 78 82 85 88 92 93 97 100 104 104
17 19 22 25 28 30 33 37 41 46 48 50 51 52 54 57 59 61 64 68 73 77 82 86 89 92 95 98 99 103 100 86
20 22 25 27 30 33 36 39 41 44 48 52 55 56 58 60 62 64 68 73 78 83 87 91 93 94 97 98 100 93 78 60
25 27 29 31 32 35 39 42 45 49 52 54 56 58 59 60 64 69 73 79 84 87 90 92 92 95 98 96 87 71 54 46
29 31 34 37 40 43 46 47 49 52 54 55 57 58 59 62 67 72 79 83 87 89 90 91 94 97 91 81 68 50 44 43
35 37 40 42 44 46 48 49 50 53 54 56 56 58 62 66 72 78 83 86 87 88 90 93 97 91 78 64 48 42 41 42
38 40 43 45 47 49 50 52 53 56 57 57 58 61 65 71 76 81 84 85 87 89 94 96 90 75 62 47 39 39 41 43
40 42 44 47 49 51 52 53 56 58 59 59 61 65 70 75 79 82 84 87 89 93 95 88 73 62 48 39 37 39 41 43
43 45 47 49 51 52 53 55 58 59 60 61 64 69 74 78 80 82 85 88 91 94 88 71 62 51 40 35 36 38 42 43
47 49 51 53 53 54 56 58 59 61 62 64 68 73 76 78 81 84 86 90 92 86 71 61 52 42 36 35 36 38 41 43
49 51 54 54 54 56 58 59 61 62 64 68 72 75 76 79 82 85 88 90 83 70 61 53 45 37 34 34 35 37 39 42

GFSFLT1_500_spd_036.txt.gz
Wind_Speed
16 16 17 19 20 21 23 23 24 28 27 41 28 34 51 44 45 47 43 50 50 47 41 38 39 41 43 46 49 52 54 54
15 17 20 21 23 23 26 24 30 29 28 40 42 45 46 47 49 48 52 55 49 41 41 44 47 50 53 55 56 57 57 61
15 16 18 17 21 24 25 26 25 33 35 42 45 47 50 54 54 53 50 48 47 48 50 53 55 58 58 58 59 61 66 69
16 18 19 21 25 28 29 30 30 35 39 43 46 50 55 58 58 55 51 51 52 53 54 56 57 58 59 62 65 68 72 76
18 17 19 23 26 27 29 31 36 41 45 46 48 50 55 51 51 51 53 53 54 56 57 58 60 61 64 68 72 76 79 82
18 19 23 26 27 29 32 34 34 34 35 40 44 46 50 53 54 55 55 56 58 58 60 61 63 66 69 74 78 82 85 89
18 22 24 24 24 24 23 26 29 31 35 37 42 45 50 53 55 57 59 59 59 62 62 64 67 70 75 80 85 89 92 95
16 16 15 16 17 20 23 26 30 34 36 39 42 46 50 54 56 57 58 59 61 62 64 67 71 75 81 86 90 93 95 96
11 13 16 17 20 24 27 31 34 37 40 43 46 48 50 53 56 59 60 61 62 64 67 70 76 81 86 90 93 95 96 98
15 17 20 22 25 29 32 35 38 41 43 46 48 50 53 55 58 60 60 61 63 65 69 75 81 86 90 92 93 95 98 101
20 22 25 28 31 34 36 39 41 43 46 48 50 53 57 58 61 61 61 63 65 70 75 81 85 89 90 91 94 98 100 86
25 27 30 32 35 38 40 43 44 46 49 51 54 57 57 60 62 62 63 66 70 75 80 84 86 88 90 93 96 97 80 68
30 32 35 37 39 41 43 46 48 50 52 55 57 58 60 63 64 64 66 70 75 80 83 84 87 88 92 96 92 75 64 53
35 37 39 41 44 45 46 49 51 52 55 58 59 60 62 64 65 67 70 75 79 82 83 85 87 91 95 87 71 61 50 41
40 42 44 46 47 48 50 51 53 54 57 59 60 62 63 65 66 70 74 78 79 82 83 86 90 93 84 70 60 50 41 37
45 46 47 49 50 52 53 53 55 56 58 60 61 63 64 65 69 73 76 78 81 81 85 89 91 81 71 61 51 42 36 37
48 48 50 52 53 54 54 55 56 58 60 61 62 62 64 68 72 75 76 79 80 83 87 89 80 71 63 52 44 37 36 37
49 50 52 54 55 55 55 56 57 59 60 61 61 64 68 71 75 75 79 80 82 86 87 79 71 66 55 45 39 35 35 35
49 51 54 56 55 55 55 57 58 59 60 61 65 68 71 75 76 77 80 81 85 86 79 70 68 58 47 40 35 33 33 35

GFSFLT1_500_spd_039.txt.gz
Wind_Speed
10 11 13 15 17 19 22 20 22 24 27 35 36 37 35 46 43 42 43 47 49 51 52 49 46 45 45 47 48 50 51 52
13 15 16 18 20 23 25 27 25 27 31 35 40 42 42 40 43 45 48 52 48 48 50 48 46 49 49 48 50 52 53 55
17 18 18 20 22 24 26 29 30 30 32 33 38 43 44 44 44 47 49 49 50 52 51 53 54 53 55 56 56 56 56 60
17 19 20 23 23 26 29 30 31 31 32 36 38 37 38 41 43 46 49 51 54 56 57 58 57 58 59 60 61 62 64 66
20 22 23 25 25 28 29 29 30 31 32 32 33 35 37 40 42 45 48 51 55 58 60 61 62 62 62 62 64 67 69 72
24 26 25 25 28 25 24 23 22 25 28 31 34 37 40 44 47 50 53 55 56 58 61 62 62 63 63 66 68 71 76 79
26 25 24 23 19 18 19 21 24 27 31 34 38 41 44 48 50 53 56 59 61 62 63 64 64 65 67 69 73 78 83 87
22 19 16 16 17 19 22 25 28 31 34 38 41 44 47 50 52 55 58 59 61 62 64 66 66 68 70 74 78 83 88 91
13 14 16 18 21 24 27 30 33 36 39 42 44 47 50 53 55 57 59 61 62 64 66 67 68 71 75 79 84 87 89 91
17 19 21 24 27 29 33 36 38 40 43 45 47 49 52 55 57 59 61 62 64 66 68 69 71 74 79 83 84 86 88 90
22 24 27 30 33 35 39 42 43 45 46 49 51 53 54 56 58 61 62 64 66 68 68 70 74 78 81 83 84 85 88 93
26 29 31 35 38 41 43 46 46 48 50 53 54 56 56 59 61 62 65 65 68 68 70 73 77 81 83 84 84 87 91 89
30 33 36 40 42 44 45 47 49 52 54 56 56 55 59 61 62 64 66 67 67 69 73 77 80 82 84 83 86 91 88 79
36 39 41 44 46 47 49 50 51 53 56 57 59 58 60 62 64 65 67 66 69 73 76 80 81 84 85 86 90 88 77 69
41 44 46 48 49 51 52 51 54 56 57 57 58 60 61 63 64 66 66 70 73 76 78 82 82 82 85 89 89 78 71 59
47 49 51 52 52 53 53 54 56 57 57 57 59 60 62 63 64 66 69 74 77 78 78 80 82 84 85 87 78 72 61 50
51 51 52 53 53 53 55 56 57 56 56 57 59 62 62 63 65 68 73 79 80 82 81 82 83 86 85 80 72 65 52 44
52 52 53 53 54 54 55 56 55 54 56 58 60 60 62 64 67 72 77 82 82 82 81 84 85 89 83 72 66 55 44 39
51 51 51 52 54 55 54 54 54 55 58 59 60 60 64 68 71 76 80 82 81 84 85 86 88 89 72 66 57 46 39 36

GFSFLT1_500_spd_042.txt.gz
Wind_Speed
2 4 5 5 9 13 15 16 17 20 22 25 30 34 35 33 36 37 34 35 36 37 38 41 44 47 49 51 51 49 48 49
9 10 12 11 12 17 20 22 25 24 25 30 33 34 34 37 38 35 36 37 37 39 41 43 45 48 51 53 52 51 51 51
11 13 15 19 14 20 23 26 27 27 29 26 26 29 30 31 34 37 38 41 43 45 47 51 53 54 55 57 58 57 54 54
15 16 18 22 21 22 25 25 25 24 23 24 25 27 30 33 37 41 44 47 49 51 52 53 55 58 59 59 60 61 60 60
19 21 21 24 26 26 26 25 22 22 21 24 27 30 34 37 40 42 45 48 51 53 55 57 58 59 60 61 63 63 64 65
26 24 25 27 26 26 22 21 19 22 24 27 31 35 38 41 45 47 51 53 53 53 55 57 61 63 63 64 65 65 67 70
31 30 24 24 22 19 19 21 21 25 29 33 37 40 43 46 48 50 53 55 57 60 60 63 66 67 67 68 67 68 71 75
26 25 18 16 17 20 22 25 27 30 35 39 41 45 47 49 51 53 55 55 58 61 62 64 66 66 67 67 68 72 76 82
15 14 15 17 20 24 27 31 34 36 40 43 46 48 50 53 54 56 56 56 59 61 63 65 66 67 67 69 73 77 82 86
16 18 21 24 26 29 32 36 39 40 45 47 50 52 53 56 58 60 61 62 62 63 64 67 68 67 69 73 77 80 84 86
21 22 25 27 29 32 36 41 43 44 48 50 53 54 55 57 58 58 53 61 63 64 66 67 66 68 72 77 80 82 83 85
24 27 29 33 35 38 39 44 48 49 50 52 54 55 57 58 58 55 61 63 64 66 67 67 69 72 77 79 80 82 81 84
29 31 34 36 41 44 45 46 50 51 51 53 54 57 58 58 58 57 60 62 65 66 66 67 70 75 77 76 80 81 84 86
36 38 40 43 46 49 51 49 52 52 53 54 57 58 58 57 56 58 60 62 65 66 68 70 74 76 77 77 81 85 87 91
41 45 49 50 53 53 54 53 52 52 53 56 57 57 56 57 58 60 62 65 67 68 71 74 78 78 76 79 86 88 90 93
44 49 52 56 55 54 52 53 51 53 55 56 57 55 56 58 60 61 64 67 69 72 78 80 79 76 75 82 86 91 90 80
52 49 51 53 54 53 51 53 52 54 55 55 53 55 57 60 60 62 65 69 72 78 82 82 81 77 75 82 89 89 78 69
53 53 52 52 55 54 53 54 54 53 53 53 56 57 60 60 63 64 70 81 83 82 82 81 72 78 81 85 85 82 69 65
52 53 54 54 56 56 53 54 53 53 54 56 57 58 60 64 65 68 72 73 78 87 83 79 80 83 81 78 74 74 63 57

GFSFLT1_500_spd_045.txt.gz
Wind_Speed
6 5 5 3 4 6 7 10 13 15 19 20 23 27 27 27 27 29 25 27 29 31 35 37 39 40 42 44 45 46 47 47
6 7 8 4 8 9 12 15 17 19 19 20 23 22 22 24 24 27 28 31 33 35 38 39 42 44 46 48 48 50 52 52
7 9 6 7 9 16 16 19 22 20 20 21 20 19 20 24 26 29 33 36 38 41 43 45 47 48 51 52 52 54 56 57
14 18 18 16 16 18 20 20 19 16 17 16 17 20 23 28 32 34 38 42 44 46 47 48 49 50 52 54 56 58 59 59
11 16 24 22 22 22 19 18 16 14 15 19 23 26 30 33 37 40 44 46 49 49 50 51 52 52 54 56 57 58 59 58
13 13 20 24 24 20 16 15 15 17 20 25 30 33 36 39 42 44 48 50 51 53 54 54 53 54 56 58 58 61 62 60
16 13 14 17 23 18 16 17 18 24 28 31 35 38 41 45 49 51 54 56 56 57 58 59 60 62 63 63 63 65 63 63
17 13 11 10 13 17 19 22 22 27 32 35 39 43 46 50 53 55 56 57 57 58 59 58 58 64 63 64 65 65 66 69
14 12 11 13 17 20 23 27 27 30 35 39 43 46 49 52 54 54 55 56 58 58 53 60 62 66 64 66 66 67 69 72
14 15 15 18 21 24 28 32 33 35 37 41 45 48 50 52 53 54 55 56 57 57 51 58 62 64 66 67 67 70 73 77
18 20 21 23 25 28 31 35 38 40 42 45 47 50 50 51 53 52 55 56 57 57 53 58 62 65 67 68 70 74 79 83
22 24 25 28 30 32 36 40 44 45 44 45 49 51 50 52 53 56 57 48 60 60 59 61 64 65 69 72 74 78 83 86
26 28 30 32 35 38 38 41 45 47 48 48 51 51 48 53 56 57 56 51 58 60 61 63 65 65 71 78 81 85 85 80
30 34 36 38 42 39 41 45 47 46 50 50 50 46 54 56 58 57 55 56 59 61 62 66 68 72 76 80 81 84 86 83
37 39 42 46 41 42 45 48 49 51 52 52 54 56 56 58 56 56 57 59 61 63 64 68 72 78 87 84 85 85 82 85
43 46 45 40 39 43 45 48 51 54 53 55 57 56 56 55 58 59 59 59 61 68 70 73 77 80 82 84 82 78 84 80
46 50 49 49 41 42 45 54 55 53 55 55 56 54 55 58 60 60 59 63 64 66 72 76 84 83 82 78 78 82 76 73
47 50 49 51 52 40 51 53 52 52 53 53 53 55 57 57 59 58 67 72 79 81 81 84 79 78 75 78 79 74 71 63
46 48 50 51 50 49 51 50 50 52 53 54 55 55 56 57 60 62 66 68 81 85 84 78 76 74 78 76 71 71 63 55

GFSFLT1_500_spd_048.txt.gz
Wind_Speed
6 5 3 3 1 2 3 4 7 9 12 14 15 17 18 19 17 15 18 21 23 26 29 32 34 38 39 39 41 42 42 43
5 5 2 5 6 8 8 11 13 14 15 15 17 16 15 14 16 19 23 26 29 33 35 38 40 43 44 45 47 47 47 48
3 6 6 7 10 13 13 16 15 15 16 15 14 12 14 19 23 26 30 32 36 38 40 43 45 47 48 50 51 50 50 53
3 4 4 4 7 13 17 14 13 13 14 13 14 16 20 25 28 31 35 38 41 44 45 47 49 50 51 53 54 54 54 58
7 7 8 7 9 12 15 12 12 12 14 16 19 22 26 30 33 36 39 42 44 45 49 50 51 52 52 53 52 52 56 59
5 6 7 11 11 10 9 8 11 13 15 20 24 27 31 35 38 40 43 46 47 46 48 51 53 55 54 55 54 59 62 62
6 2 3 5 8 9 9 9 14 18 21 26 28 31 35 39 42 44 46 47 48 52 52 53 53 55 55 54 53 58 61 64
4 4 4 3 7 10 14 15 18 22 25 28 31 35 40 43 45 47 48 51 54 54 55 58 56 57 56 58 60 62 64 64
5 3 5 9 12 15 19 19 22 26 29 32 34 40 44 47 49 50 53 54 53 55 56 59 63 58 61 65 65 65 65 65
6 7 10 14 17 20 22 25 29 31 33 36 39 45 48 50 50 52 51 51 51 57 59 60 57 58 67 67 67 66 66 69
11 12 14 18 21 26 29 32 35 39 40 41 43 44 41 46 48 46 49 51 57 59 61 60 57 59 64 67 67 68 71 74
14 16 18 21 25 30 34 38 42 43 41 40 42 45 47 48 49 49 53 56 60 62 61 60 62 63 66 67 69 72 75 78
19 21 22 25 28 32 37 41 42 42 45 45 48 50 46 50 51 54 56 60 60 59 62 64 64 65 67 72 75 76 79 82
25 25 28 31 33 36 36 35 37 39 41 47 50 47 57 53 57 53 56 58 60 60 63 63 62 66 73 78 84 89 87 84
27 30 32 33 33 33 32 40 39 41 44 42 43 56 52 57 55 54 58 61 63 62 63 64 68 71 74 79 87 88 84 78
31 32 35 36 36 41 42 40 41 45 45 49 55 48 56 55 57 59 60 61 61 62 66 70 75 77 80 82 84 83 76 76
36 38 38 40 41 43 42 43 41 44 45 53 51 50 56 57 59 59 58 60 62 65 74 76 76 80 83 83 79 75 80 83
39 42 45 45 46 39 41 36 41 48 50 49 51 54 57 58 58 58 59 64 67 67 73 80 83 86 82 79 78 81 77 69
40 42 44 47 48 48 47 48 49 47 49 53 54 55 56 58 59 63 67 71 70 73 76 80 84 81 79 79 77 69 62 60

GFSFLT1_500_spd_051.txt.gz
Wind_Speed
9 12 12 8 8 6 5 4 1 2 4 7 9 12 14 14 13 11 15 17 21 23 26 30 33 36 39 42 43 43 45 46
4 5 6 7 6 6 4 2 3 6 8 11 13 15 13 10 11 15 19 23 25 27 31 35 37 40 43 45 46 46 48 48
7 4 3 3 3 3 2 2 5 5 9 11 12 12 11 14 17 20 24 27 30 33 37 39 43 45 47 48 49 49 50 50
6 5 3 4 5 4 5 5 6 7 9 11 11 13 16 20 24 26 29 32 36 38 42 46 48 49 50 50 52 52 53 54
6 7 6 7 8 8 9 7 7 8 9 13 14 18 22 26 29 32 34 37 40 44 46 48 50 50 50 50 52 53 54 53
9 5 9 11 10 10 9 10 9 10 12 15 19 23 26 31 34 37 39 41 45 47 48 48 50 51 48 51 56 57 60 58
12 11 13 15 11 10 9 11 10 12 17 20 22 27 31 35 39 42 43 45 47 48 49 50 51 46 51 61 61 61 59 57
8 8 8 9 9 8 9 11 13 16 20 24 26 32 35 40 44 45 47 48 48 49 48 52 51 51 60 62 64 62 62 63
6 6 6 7 9 11 14 15 17 19 23 27 33 37 41 46 47 50 51 51 51 53 51 50 60 55 63 68 62 63 66 68
7 7 8 10 12 15 17 19 19 23 28 34 39 42 44 46 49 47 52 49 54 57 55 53 57 68 71 68 67 70 71 71
10 10 12 14 16 19 20 21 24 30 35 39 42 44 44 47 48 52 52 48 57 57 53 57 65 68 68 69 71 71 72 73
13 13 15 18 21 23 26 28 32 36 40 44 41 44 46 49 53 50 51 56 41 44 65 64 66 69 69 70 70 72 75 78
18 18 19 23 23 27 30 33 36 40 40 41 46 50 49 50 51 49 51 47 51 66 64 65 68 69 69 69 73 77 82 86
24 26 25 23 28 30 31 32 34 40 40 44 43 46 50 53 52 55 59 61 61 62 64 66 67 68 71 74 78 80 83 88
24 25 25 30 34 35 35 34 36 41 37 41 45 47 49 49 55 61 64 60 62 64 64 66 68 71 74 78 81 84 86 89
23 26 29 29 32 33 34 34 37 37 43 49 46 48 52 57 60 62 60 63 63 64 65 68 71 77 80 84 86 87 92 88
28 30 32 32 33 32 34 40 39 38 42 43 51 53 58 58 56 60 60 62 63 64 68 74 73 79 81 87 86 89 87 85
30 32 35 37 38 41 44 46 48 46 46 49 52 53 55 56 58 60 60 62 65 68 73 74 75 78 81 84 86 83 78 71
33 36 37 39 42 45 46 48 49 48 49 50 50 54 56 57 57 58 61 62 68 74 77 75 75 78 80 81 79 74 66 65

GFSFLT1_500_spd_054.txt.gz
Wind_Speed
13 14 15 16 14 13 14 12 10 8 7 7 7 8 9 8 10 9 10 13 16 20 23 26 30 34 38 40 43 44 45 45
7 7 8 9 9 9 8 8 8 8 9 9 8 8 7 8 8 10 15 18 22 25 28 31 35 39 42 44 46 46 47 48
10 11 12 13 13 13 12 10 9 9 10 9 8 8 7 9 11 16 21 24 26 30 33 36 39 43 45 47 48 49 49 49
11 12 11 10 10 10 11 11 10 10 10 10 9 8 9 13 18 22 26 28 31 34 38 40 43 46 49 50 50 49 49 50
10 9 10 11 11 13 11 10 12 12 10 12 12 11 14 19 21 26 30 33 36 39 42 44 46 49 49 50 48 48 47 53
13 10 9 12 14 15 15 14 13 13 13 12 14 16 19 21 24 31 36 39 42 45 45 45 47 50 49 51 48 52 54 57
18 17 17 18 20 17 17 15 15 15 15 14 16 19 21 22 29 38 42 45 46 48 44 49 50 53 53 53 53 58 60 65
22 22 23 23 21 18 16 13 14 17 18 16 20 22 25 26 35 42 46 45 46 47 48 53 53 54 51 59 57 64 69 71
21 20 19 19 19 16 13 14 17 20 20 18 22 26 29 32 41 44 43 44 47 47 51 53 55 56 48 59 64 67 65 69
18 17 17 17 15 14 14 16 19 21 21 23 28 31 36 41 41 42 46 45 48 49 56 48 47 47 61 63 72 71 72 74
18 17 16 16 17 18 17 20 22 24 26 29 32 35 38 38 40 44 41 46 52 57 56 53 58 53 66 72 72 73 74 74
18 17 17 18 19 19 20 24 27 30 32 34 35 38 39 38 40 44 48 51 57 60 57 59 58 67 67 71 74 74 74 77
21 21 21 22 22 24 27 30 31 32 34 34 37 39 41 42 43 44 54 55 59 57 61 65 67 67 71 72 71 73 77 80
25 25 26 27 30 32 33 34 36 37 38 37 39 40 45 45 46 49 59 61 62 64 70 69 67 72 70 72 73 76 80 83
22 27 30 31 33 35 35 35 33 35 36 38 40 45 46 49 49 61 59 61 64 60 65 69 70 69 71 74 76 81 86 82
23 25 27 30 32 33 33 34 34 34 34 42 42 42 44 52 52 57 58 61 61 62 65 67 68 70 73 76 80 83 82 82
25 27 29 30 30 33 34 33 33 37 39 42 46 44 45 51 54 57 57 61 61 62 63 67 70 74 75 76 78 81 81 81
28 29 30 32 33 34 35 37 40 42 45 47 48 49 51 52 55 57 58 61 60 56 65 71 73 73 74 76 78 79 81 81
29 30 31 33 33 35 38 41 43 46 48 49 50 51 53 55 56 58 59 60 61 65 68 71 71 74 75 78 79 80 82 81

GFSFLT1_500_spd_057.txt.gz
Wind_Speed
11 10 11 15 14 13 11 12 14 13 13 14 12 11 13 12 11 10 10 11 11 14 18 22 25 29 32 34 36 38 40 42
10 10 9 10 12 14 14 15 14 14 13 10 12 12 13 12 10 9 11 11 15 19 22 26 29 33 36 38 38 40 41 42
12 13 11 11 13 14 15 16 15 14 14 13 13 14 12 12 11 13 13 15 19 22 26 30 33 36 39 39 40 42 43 43
8 10 10 12 14 15 14 12 11 13 14 17 16 15 14 15 16 16 19 18 21 26 31 35 38 40 41 43 43 48 48 45
10 10 10 13 14 15 16 15 15 16 17 16 16 13 13 15 16 20 24 23 25 33 36 40 40 41 42 47 47 49 45 47
15 16 18 18 19 20 21 20 18 17 17 17 16 16 17 20 23 23 25 28 34 39 39 40 42 43 42 46 48 49 53 51
18 21 21 19 21 20 19 19 16 16 17 19 19 20 20 22 22 24 24 32 38 34 40 43 46 44 46 49 50 53 59 58
23 22 22 23 24 22 17 15 15 16 17 20 26 29 23 21 24 28 30 33 34 36 43 46 48 46 50 51 54 54 58 63
25 28 28 28 29 23 17 15 15 16 18 24 31 32 23 21 28 31 32 33 35 41 44 51 46 51 55 59 59 56 59 65
23 27 29 27 23 19 16 17 18 19 21 24 31 32 27 30 33 34 35 38 40 45 46 45 50 58 59 60 60 60 67 70
17 19 21 22 22 21 20 20 21 22 24 27 32 32 32 33 34 38 37 38 40 42 47 50 56 60 64 63 67 69 66 71
18 19 20 24 25 24 22 23 25 27 28 30 33 32 34 37 36 33 37 38 38 49 48 53 58 65 63 62 65 70 76 76
22 23 23 24 24 24 26 27 29 32 34 33 34 37 40 34 33 35 38 42 35 53 54 58 62 68 69 63 71 77 73 74
21 25 29 30 30 30 32 33 34 35 35 36 38 38 33 38 41 42 41 31 49 55 62 65 66 65 55 62 77 72 72 79
26 26 30 34 36 36 37 36 35 35 37 37 37 38 37 41 38 42 48 49 53 61 60 62 56 64 67 69 67 72 81 82
23 23 29 31 33 34 35 36 35 35 35 36 36 39 41 43 44 49 49 51 52 54 60 61 63 67 65 63 68 77 81 80
28 26 26 29 30 30 31 32 34 35 35 37 38 40 42 44 46 50 51 52 54 56 61 61 63 68 69 69 77 84 80 81
29 29 30 30 30 30 31 33 34 35 37 39 42 43 45 48 50 52 53 54 56 58 61 60 61 63 71 77 82 81 81 82
28 27 29 29 29 30 32 33 35 37 40 42 44 46 49 51 52 53 55 56 57 57 62 64 67 69 75 80 78 80 82 83

GFSFLT1_500_spd_060.txt.gz
Wind_Speed
12 11 8 7 8 9 7 7 9 8 8 9 11 11 12 12 13 15 15 15 17 15 11 14 18 21 24 28 32 35 37 38
7 7 8 8 7 7 7 8 10 9 11 12 11 13 14 16 17 16 16 15 15 15 14 18 22 25 28 33 36 38 39 41
10 10 13 14 14 14 15 15 14 14 14 14 14 16 16 17 18 19 18 16 16 16 17 21 24 28 33 36 36 36 39 38
9 9 10 11 13 15 16 16 15 14 14 17 18 17 16 18 17 19 19 20 21 20 21 23 29 34 34 34 36 38 39 42
7 8 9 9 10 12 13 14 15 17 16 17 18 18 17 18 17 19 20 22 25 29 32 35 37 39 36 36 38 41 43 45
10 12 13 13 13 15 16 17 18 18 19 18 20 20 19 21 21 21 22 25 26 29 31 38 43 36 40 39 42 42 46 51
16 18 19 19 20 20 20 19 19 19 20 20 22 22 23 25 23 27 26 25 26 28 36 40 38 41 41 42 48 51 53 60
17 20 20 20 22 22 19 16 17 15 17 19 22 23 25 31 31 34 23 26 28 35 36 38 41 42 42 45 54 55 55 59
21 20 21 26 26 24 20 16 16 15 17 20 22 23 27 33 38 29 24 27 31 32 37 39 42 41 44 51 51 58 57 55
17 20 22 24 27 27 26 19 18 18 21 22 25 27 29 31 40 36 30 33 35 34 35 39 44 45 41 50 49 58 61 68
15 17 21 25 25 26 26 23 22 22 24 25 28 30 34 37 38 34 36 40 32 34 35 41 50 43 42 43 64 58 66 74
20 21 18 18 21 23 24 26 27 26 28 28 30 33 38 39 38 40 39 35 38 40 39 39 52 51 46 57 66 72 74 70
21 23 22 21 21 22 26 28 30 31 30 32 35 37 40 40 42 42 40 39 43 40 40 48 43 49 66 70 67 73 68 63
20 22 25 29 30 31 32 33 34 34 35 38 40 40 41 43 44 43 40 39 37 40 52 46 57 66 67 70 69 70 71 71
22 22 23 29 33 37 39 40 39 38 40 40 40 41 43 44 43 43 43 41 44 48 53 54 61 63 60 67 69 67 69 71
22 24 26 25 31 37 39 39 37 36 38 40 40 40 41 41 42 43 44 45 47 48 51 54 57 59 61 65 66 69 72 75
26 26 28 28 28 31 33 33 33 33 35 36 36 38 39 40 41 43 45 47 50 52 54 57 58 58 58 62 71 69 78 77
31 29 28 29 31 33 34 34 34 34 35 35 36 37 39 40 42 45 47 51 53 55 58 59 60 60 61 62 64 70 73 76
30 29 28 28 29 30 31 33 34 35 34 35 37 38 40 43 45 47 50 54 56 57 57 58 59 61 62 64 67 69 73 76

GFSFLT1_500_spd_063.txt.gz
Wind_Speed
1 8 12 11 13 15 11 11 12 11 11 11 11 10 10 9 9 10 13 14 19 17 15 13 12 14 16 20 24 26 30 33
2 2 4 6 5 4 5 9 8 7 4 3 4 5 7 9 11 13 14 19 20 16 16 15 16 18 20 24 27 31 33 32
6 5 4 5 5 5 5 5 5 4 5 7 8 10 11 13 15 17 20 21 19 18 19 21 20 23 23 26 32 35 29 30
4 4 5 5 5 6 6 7 8 10 11 12 12 14 16 17 18 19 20 19 20 20 24 24 25 28 29 36 40 40 35 31
4 4 5 6 7 8 9 10 11 13 13 15 16 17 17 18 18 19 20 20 22 24 26 29 32 37 40 42 44 39 40 38
6 7 8 9 9 10 11 12 13 14 15 17 18 18 20 20 20 22 24 23 25 27 30 27 31 35 35 41 42 43 44 41
11 13 14 15 15 15 15 16 15 14 17 19 21 22 22 22 24 26 27 29 29 34 32 30 31 35 38 40 42 45 49 44
15 17 18 16 17 19 18 18 18 17 16 17 19 19 21 20 22 25 28 40 33 37 27 30 36 39 40 39 42 46 50 51
25 23 21 19 17 19 21 20 20 18 19 18 18 19 21 22 27 28 29 38 41 32 32 37 39 40 33 41 46 50 52 51
21 19 18 17 17 20 22 21 20 18 21 22 22 23 24 26 27 31 35 39 39 31 38 44 33 39 42 45 51 53 50 50
21 18 17 16 18 18 19 20 21 21 21 23 25 28 30 31 31 34 39 41 42 42 45 35 39 44 44 44 53 54 45 55
22 21 19 21 21 22 20 22 24 25 25 26 27 31 31 34 38 40 40 41 43 44 44 40 35 39 39 41 51 59 58 61
25 23 22 22 26 26 24 25 28 29 29 31 30 32 35 38 42 46 45 44 45 46 43 38 47 44 54 55 52 61 66 73
24 25 26 27 29 30 30 29 31 32 32 33 35 38 41 43 46 46 46 47 48 46 47 44 45 55 55 58 57 61 67 68
23 23 24 27 30 33 36 38 38 39 40 41 43 45 45 46 45 46 47 48 48 48 48 48 50 52 54 57 59 61 63 65
24 25 25 26 28 29 31 35 38 41 40 39 39 41 43 45 46 44 45 46 47 47 48 49 51 54 56 59 61 63 63 64
27 28 29 30 31 30 31 33 35 36 33 34 35 39 38 40 41 42 43 44 45 47 49 52 56 58 60 62 63 63 64 65
29 31 33 34 33 34 33 33 35 37 38 38 36 37 38 39 39 40 43 45 47 50 53 56 59 61 62 62 63 63 65 65
29 30 32 32 32 33 33 34 35 36 37 38 39 39 39 40 41 43 45 48 51 54 57 60 62 62 62 63 63 65 65 65

GFSFLT1_500_spd_066.txt.gz
Wind_Speed
8 9 14 18 19 18 18 17 17 18 17 18 17 15 15 12 10 7 6 8 10 11 12 12 13 14 15 16 17 18 19 23
3 5 3 10 13 14 13 11 12 13 11 9 7 6 6 4 4 5 7 10 11 14 16 16 17 16 18 21 21 22 22 25
5 6 4 6 8 7 8 8 7 6 6 5 4 3 2 4 7 10 12 14 15 17 17 18 19 22 23 26 26 28 30 33
2 2 6 7 6 6 7 5 4 5 5 5 6 7 8 10 12 13 14 15 16 17 18 17 22 28 29 32 35 38 42 40
2 1 1 2 2 3 4 5 5 7 8 9 10 10 11 11 13 14 16 17 18 19 21 23 26 30 35 38 37 41 40 39
2 2 3 5 5 5 6 6 7 7 10 12 14 14 15 14 15 16 17 17 20 22 25 29 32 36 35 36 38 37 40 42
5 1 3 7 6 5 7 8 9 8 10 14 16 17 16 16 16 16 17 21 23 29 28 33 39 38 39 36 37 43 46 35
9 9 12 14 10 10 7 8 9 9 10 13 15 15 17 16 16 16 19 19 28 31 29 33 27 31 37 41 42 45 38 39
15 17 16 14 12 13 12 11 11 10 11 13 14 16 16 19 20 21 24 24 27 29 31 31 33 31 31 30 30 35 33 38
19 17 19 18 16 15 14 15 14 13 13 16 23 17 19 29 28 26 29 28 31 34 35 35 34 36 36 34 40 36 40 42
22 24 23 22 20 17 16 16 16 16 17 18 20 24 27 29 31 29 31 31 35 39 40 40 40 40 37 41 34 34 46 46
23 24 26 24 23 22 19 18 20 22 24 24 23 26 31 34 28 32 35 37 39 41 43 43 43 44 42 41 45 47 44 57
22 24 24 27 25 24 25 21 24 27 29 33 29 26 31 32 36 39 40 43 44 44 44 45 46 46 45 46 47 48 53 56
22 22 24 27 29 29 29 27 30 30 32 31 31 35 36 37 39 42 46 48 47 47 48 48 48 47 48 48 48 50 54 58
25 26 24 26 27 29 32 33 33 34 33 35 39 41 42 45 44 44 44 46 46 49 46 47 48 48 49 50 52 55 58 61
24 27 27 24 25 25 27 30 31 32 35 36 40 41 40 39 39 39 43 44 45 45 46 47 47 48 49 52 56 59 62 63
27 28 34 28 26 28 30 31 33 34 36 37 38 37 35 38 41 42 41 42 43 44 45 46 47 49 53 56 60 63 65 65
30 31 35 32 26 29 34 35 37 38 37 37 37 38 40 41 40 40 42 43 43 44 45 47 50 53 56 60 63 65 65 64
26 27 31 32 32 32 35 37 38 38 38 39 40 41 40 40 41 43 43 43 43 46 47 50 53 56 60 63 65 65 65 66

GFSFLT1_500_spd_069.txt.gz
Wind_Speed
11 8 5 4 7 7 8 11 11 10 6 6 8 15 19 16 16 15 14 12 8 6 9 10 12 12 16 17 16 19 18 20
6 8 12 10 10 13 17 19 20 19 18 18 18 17 16 14 13 11 6 4 3 7 10 14 14 15 18 20 20 21 22 23
2 8 9 9 10 12 14 16 15 14 14 15 15 13 11 7 4 2 2 3 6 10 12 14 14 17 19 22 23 25 27 29
2 2 7 9 10 9 9 10 10 10 10 9 9 7 5 2 0 2 5 6 7 10 11 11 15 18 19 22 29 32 33 36
3 3 6 7 7 8 8 8 8 7 6 4 3 3 3 3 3 4 7 8 9 10 11 12 14 21 26 29 30 31 34 38
2 6 6 5 3 4 5 6 6 3 1 2 3 4 5 6 6 5 7 10 9 10 15 18 22 24 28 34 39 39 34 38
4 2 2 5 3 1 2 4 4 2 1 3 4 4 5 6 8 6 9 12 12 13 16 17 17 25 28 31 28 30 33 37
6 6 6 8 4 4 2 2 4 4 5 7 7 9 7 9 10 10 13 14 13 17 17 17 20 22 25 26 30 31 31 30
10 12 9 9 8 8 9 9 9 10 11 13 13 13 12 14 16 13 19 19 21 21 21 21 24 27 28 28 30 32 34 35
15 12 13 7 9 11 13 14 15 15 17 16 16 19 20 20 24 22 25 24 25 25 24 27 30 31 33 34 34 36 36 37
13 15 14 14 16 17 17 17 17 18 18 19 19 22 24 26 28 28 29 31 26 25 26 32 35 37 38 38 38 38 39 40
13 16 20 20 19 20 21 20 21 23 24 21 23 26 27 31 33 36 38 28 30 32 34 35 40 40 40 42 40 40 42 44
16 17 18 18 15 14 15 23 25 25 27 26 29 31 30 37 40 44 31 32 37 38 38 39 38 40 41 40 42 43 44 45
15 17 19 21 21 19 20 25 31 26 33 26 29 29 34 29 29 34 36 38 39 39 39 40 41 42 42 43 44 44 45 47
24 17 20 23 22 23 24 30 28 22 24 23 29 29 35 35 36 38 39 39 37 37 39 42 41 42 43 43 44 44 47 50
28 24 26 18 19 24 26 30 31 31 28 28 29 32 35 37 39 39 39 38 39 42 41 41 42 43 43 43 45 47 50 54
31 32 32 23 18 22 25 29 32 32 32 33 34 37 39 39 39 38 39 41 44 42 42 43 43 44 45 45 48 51 54 58
23 29 31 31 22 23 25 28 30 32 34 36 38 40 40 41 41 41 44 46 43 42 42 43 44 45 46 49 52 56 59 62
31 31 28 26 24 23 26 28 30 32 34 36 38 39 40 41 42 43 42 42 42 43 43 44 45 47 50 52 56 59 62 64

GFSFLT1_500_spd_075.txt.gz
Wind_Speed
7 5 5 7 5 9 15 18 19 19 21 21 20 21 22 27 23 20 20 20 22 24 23 18 19 17 16 14 12 16 20 21
6 4 4 2 5 4 12 18 16 16 20 19 20 19 16 19 20 21 20 17 20 21 19 21 20 19 15 14 18 20 22 24
6 5 2 1 7 11 12 9 11 14 18 22 23 20 17 17 18 20 21 20 19 19 18 19 16 13 17 18 18 20 24 26
5 6 4 4 5 9 9 11 15 18 19 19 18 21 22 20 17 15 16 18 17 17 20 20 18 17 18 19 19 21 24 26
9 8 6 4 5 6 7 7 12 16 18 20 19 18 17 18 20 20 18 17 18 19 17 19 18 19 18 17 17 19 19 22
9 9 8 5 4 4 5 6 6 7 12 15 16 16 16 15 15 18 18 16 16 17 18 16 17 16 17 17 17 21 24 25
9 7 6 5 5 7 9 9 10 10 10 10 9 11 12 14 15 14 15 16 16 16 15 18 18 14 16 17 19 21 23 24
11 11 8 6 4 6 7 7 6 6 7 8 11 10 10 10 10 12 14 15 17 18 19 20 23 22 22 22 23 23 26 27
13 13 13 12 7 7 8 6 5 6 8 10 10 9 10 9 10 14 15 16 16 17 18 23 24 24 24 27 30 29 30 30
14 15 17 17 12 11 11 10 10 8 10 11 12 13 16 16 17 18 20 20 21 25 27 28 29 31 28 35 43 36 31 32
10 12 17 16 15 16 14 13 12 14 13 13 15 18 21 24 25 26 26 26 28 32 35 37 34 36 38 36 34 36 32 32
7 7 12 16 17 16 17 18 18 20 19 21 23 24 26 28 29 30 31 32 35 37 42 48 36 44 35 29 31 35 31 34
13 11 8 10 13 15 17 17 16 19 25 28 27 28 25 32 16 29 36 42 48 42 26 23 25 25 26 29 31 31 34 36
21 15 15 15 12 15 16 17 20 23 24 25 21 17 17 20 23 23 21 28 30 23 26 24 24 27 29 32 34 35 38 40
22 15 12 11 16 19 19 20 21 21 21 21 21 22 21 24 22 23 24 27 28 28 29 29 31 34 35 38 39 42 43 44
25 19 16 18 20 19 24 24 25 27 24 25 24 23 24 25 22 24 27 29 29 29 31 34 35 36 40 42 42 43 44 45
29 27 23 24 22 16 24 24 24 27 27 25 25 24 25 25 26 27 29 32 32 34 34 33 36 39 41 43 42 43 45 45
30 33 31 22 22 19 19 23 24 25 23 23 23 24 26 27 29 32 33 34 36 37 35 36 37 39 41 43 44 45 45 47
33 35 31 19 19 20 20 21 22 25 27 27 27 27 29 31 32 34 37 39 39 38 37 39 41 43 44 46 46 47 49 51

GFSFLT1_500_spd_078.txt.gz
Wind_Speed
10 11 10 11 10 13 14 15 16 19 22 22 24 22 19 20 23 21 19 19 22 23 23 25 23 22 21 20 18 20 22 23
10 10 7 6 10 12 11 16 15 15 19 23 23 26 19 22 25 22 22 24 25 27 27 24 22 24 24 18 17 13 15 19
9 9 6 4 6 5 6 12 13 15 22 23 22 21 19 20 25 25 27 30 28 27 24 25 26 22 21 19 18 17 21 21
7 8 3 2 2 3 7 6 8 17 22 24 24 25 24 21 22 28 24 22 21 22 24 22 22 20 18 20 19 20 21 21
8 7 4 2 2 1 7 6 6 4 13 22 20 17 15 20 21 22 19 19 19 19 19 21 21 20 21 21 22 20 19 19
8 8 6 2 3 4 4 9 9 5 8 14 15 15 17 17 19 19 19 18 17 16 17 18 20 21 22 20 19 21 21 24
9 8 7 4 4 5 6 8 11 11 11 13 14 14 15 14 13 14 16 16 16 17 20 21 20 20 21 21 22 23 24 26
13 11 8 7 4 5 7 7 5 6 8 9 11 14 16 15 15 15 15 16 17 18 19 21 22 24 24 25 26 26 27 29
16 15 13 11 6 7 8 8 8 8 7 7 8 9 11 11 11 13 16 17 18 19 21 23 24 26 26 26 27 28 32 33
15 16 17 17 14 13 11 11 11 11 11 12 12 12 13 15 15 16 18 17 18 20 23 24 26 28 30 29 30 33 35 36
14 12 17 20 20 19 16 15 15 14 13 14 13 14 17 18 18 17 18 21 21 23 26 28 29 31 36 39 38 39 37 37
14 12 16 16 17 19 19 18 18 16 16 19 20 21 24 25 22 22 19 25 26 28 30 34 36 43 44 42 45 49 49 40
18 13 13 13 15 17 19 21 21 21 20 23 24 26 28 20 22 21 27 18 19 34 30 41 41 44 29 26 25 28 33 33
21 17 17 19 19 17 20 21 21 21 22 23 26 21 17 20 10 13 15 18 18 17 14 20 17 28 22 29 31 29 31 34
25 26 21 25 21 17 18 20 22 25 24 23 22 22 23 18 16 19 18 22 21 20 23 22 23 25 28 32 31 34 36 37
25 27 26 21 22 20 20 24 27 27 27 24 23 26 26 24 23 22 24 25 25 25 28 25 27 31 33 34 34 34 39 40
28 26 23 19 20 20 21 17 24 29 30 29 27 26 26 28 28 28 26 26 27 28 28 30 31 34 35 37 37 38 41 43
26 25 19 19 21 21 22 21 23 26 25 24 22 22 24 25 27 27 27 29 30 31 32 34 37 39 39 40 41 41 43 45
35 33 32 29 24 25 25 22 25 24 23 23 23 24 25 27 29 30 32 34 35 36 37 38 40 42 41 41 42 45 46 47

GFSFLT1_500_spd_081.txt.gz
Wind_Speed
16 15 15 15 15 14 13 17 17 19 21 19 16 14 13 14 26 23 24 19 17 14 15 18 22 24 23 23 22 19 19 19
13 11 12 13 12 15 11 15 18 15 16 16 15 20 16 15 18 19 24 22 19 18 18 21 25 26 22 22 20 19 17 15
13 8 9 8 8 12 8 11 14 16 17 15 16 18 20 19 19 25 24 24 23 23 24 25 27 24 22 20 19 19 19 19
9 6 6 4 4 5 8 1 16 18 17 21 21 18 16 14 14 22 21 22 23 25 26 25 24 21 21 22 21 21 20 19
9 7 6 4 3 2 5 5 5 4 21 20 17 21 23 19 18 16 20 23 25 25 24 19 17 21 22 24 22 22 21 22
9 9 7 5 5 3 3 4 3 4 5 18 21 24 21 23 22 21 18 15 16 15 14 14 18 19 21 22 23 24 26 26
10 8 8 7 6 4 4 5 4 2 3 7 11 12 14 12 11 12 13 15 16 15 17 18 20 20 23 24 25 25 28 26
11 13 10 8 6 7 7 5 4 3 6 6 7 8 9 11 13 13 15 16 16 19 20 19 20 22 23 24 25 25 25 26
15 15 13 10 8 6 6 8 8 8 8 9 9 9 9 10 12 14 15 17 19 18 18 18 19 20 21 22 24 24 26 28
16 17 16 16 13 12 8 7 7 7 8 9 10 11 12 14 15 16 17 15 16 15 16 17 18 20 22 25 26 27 30 33
15 17 18 18 15 17 15 14 12 11 11 10 10 11 12 13 13 15 15 16 16 17 19 22 23 24 26 29 31 33 39 42
17 18 18 17 14 16 19 18 17 15 14 14 14 15 17 18 17 20 20 22 20 22 26 28 28 30 34 32 34 36 50 33
22 21 17 13 11 13 15 18 18 19 20 19 20 22 22 22 24 25 26 27 24 18 12 16 31 36 28 32 45 53 29 29
27 25 21 17 15 16 16 17 20 22 23 23 26 25 24 21 20 22 14 13 14 16 20 22 19 23 27 27 31 45 34 32
31 26 24 22 20 19 19 20 21 21 23 24 25 25 24 21 19 16 15 17 18 18 21 24 25 29 29 26 27 28 33 32
29 26 26 24 21 21 20 20 18 22 27 28 28 26 24 25 25 25 22 21 23 19 22 24 26 28 29 30 31 32 33 36
30 30 26 29 24 27 26 26 24 22 23 25 29 28 27 26 24 25 24 27 24 22 23 25 28 30 31 31 32 35 37 40
35 33 31 32 34 31 28 24 22 23 24 23 24 25 24 23 21 20 21 24 26 27 28 31 32 32 34 35 37 39 41 42
34 32 26 24 28 29 30 26 24 24 27 25 26 27 24 24 24 24 26 27 29 32 33 35 36 37 36 36 37 39 42 45

GFSFLT1_500_spd_084.txt.gz
Wind_Speed
23 23 21 16 15 16 18 20 19 20 20 20 19 24 15 23 32 32 29 38 32 25 24 24 24 23 26 29 28 23 25 24
25 23 17 14 12 13 16 14 17 17 22 18 17 17 16 12 21 28 28 23 22 21 18 18 19 22 23 23 23 24 22 23
23 18 11 11 9 11 16 11 10 16 17 17 16 14 13 14 15 19 25 21 19 17 15 14 16 18 18 22 23 23 24 23
21 10 7 8 7 9 9 8 9 13 19 21 15 14 13 17 13 17 15 16 19 20 19 15 14 17 19 23 25 24 25 21
15 9 7 6 6 8 6 5 6 8 19 19 16 21 14 15 8 11 18 19 18 17 17 17 19 23 23 23 26 23 20 19
14 8 7 8 9 8 7 5 2 5 7 21 25 22 17 17 15 15 14 19 20 18 18 19 16 14 18 20 20 21 22 22
12 10 7 8 8 9 7 7 5 3 4 9 18 16 16 16 18 17 18 18 15 14 13 11 10 12 15 17 19 21 24 25
11 11 8 9 8 8 7 5 4 2 1 4 6 8 7 9 12 11 10 11 10 10 10 10 13 18 19 20 21 22 22 23
13 12 9 10 11 8 6 7 5 5 5 6 7 9 8 7 7 7 8 9 11 10 9 13 17 18 19 20 20 20 23 24
17 15 11 11 13 13 8 6 7 7 6 6 6 6 7 9 10 10 9 9 9 9 12 15 17 19 20 22 22 23 26 28
17 17 15 12 14 14 12 12 11 8 9 9 10 10 11 11 12 12 12 14 14 16 18 21 22 23 24 26 26 26 29 30
22 22 18 15 14 14 14 13 13 13 14 13 13 12 12 12 12 13 15 18 19 22 23 24 25 26 28 30 30 30 36 36
24 24 22 16 17 15 14 13 14 16 17 16 17 16 14 13 12 17 22 24 26 27 26 26 24 23 28 36 38 38 30 34
24 23 23 22 23 19 13 10 13 16 18 19 20 21 17 17 19 17 18 25 24 26 31 29 26 24 27 27 30 30 36 34
29 27 26 27 26 25 23 18 18 21 23 22 23 22 21 21 21 19 19 21 22 20 19 23 25 23 23 24 26 28 28 30
32 31 30 29 29 29 27 23 20 21 24 26 26 28 27 25 25 24 22 23 25 26 25 26 25 23 23 27 29 31 32 33
33 31 32 29 29 26 26 30 30 27 26 28 29 32 35 34 32 28 28 28 25 23 26 28 22 24 29 31 32 35 37 38
40 34 29 29 25 25 27 29 29 30 28 30 27 25 24 24 25 26 28 28 26 26 27 28 28 30 32 35 37 40 41 43
45 39 35 29 30 29 31 32 28 29 29 30 29 26 26 26 27 27 28 28 27 28 29 32 33 35 37 39 41 44 46 48

GFSFLT1_500_spd_087.txt.gz
Wind_Speed
20 19 17 22 23 22 21 22 21 21 20 22 19 21 22 27 24 27 19 24 28 34 50 47 39 43 43 43 46 35 30 27
17 15 17 24 19 18 18 20 22 19 19 22 19 18 18 23 21 20 24 27 26 37 45 49 25 24 26 31 30 32 31 25
14 13 19 18 14 14 12 16 14 12 18 21 19 17 14 20 14 23 34 30 26 32 26 25 25 25 25 27 26 23 21 21
12 14 16 14 11 11 10 10 9 10 14 17 17 14 10 8 11 13 23 25 22 22 19 16 16 17 19 18 19 19 20 20
10 13 13 13 10 10 9 9 6 5 12 18 18 14 12 10 13 11 11 15 18 20 20 16 13 13 13 15 17 19 20 19
10 13 13 13 11 10 11 11 9 9 8 17 21 16 16 10 12 6 9 14 17 16 18 20 16 14 15 15 17 18 17 18
12 14 14 11 9 8 9 11 8 12 8 10 18 19 17 11 12 11 12 11 12 18 17 17 16 14 14 14 15 15 16 19
13 14 14 10 9 6 8 9 8 7 5 7 5 10 13 10 10 13 14 14 11 11 12 14 13 14 14 14 13 13 15 18
16 14 14 10 8 7 7 8 8 5 5 1 4 7 9 8 6 7 9 11 15 14 13 11 12 11 11 11 11 13 17 21
19 16 16 13 9 8 8 7 7 8 5 6 6 6 6 8 9 10 11 11 10 10 11 12 12 12 13 13 14 17 21 23
21 19 18 14 11 9 9 10 11 9 8 7 5 5 6 7 7 8 10 9 10 11 12 15 16 19 18 17 19 22 26 25
23 22 20 17 13 10 10 11 12 14 13 12 11 10 7 7 8 9 10 10 11 13 16 19 21 22 19 21 24 26 29 29
26 24 24 20 17 15 11 14 13 12 13 13 14 14 13 12 13 13 13 15 17 20 21 25 24 25 26 27 28 31 32 34
28 27 24 20 21 19 14 12 14 14 13 11 11 14 15 17 17 17 16 16 18 19 21 22 28 29 29 23 24 26 26 26
28 29 28 26 24 18 18 17 17 18 19 19 19 20 18 18 18 16 17 19 17 19 17 21 23 27 31 27 26 25 24 25
31 31 31 30 28 25 23 22 23 24 24 22 23 23 23 24 23 21 23 24 21 21 23 23 23 26 25 28 28 26 29 31
35 34 33 32 32 30 28 25 23 23 23 23 23 24 26 27 29 31 31 30 29 29 27 28 27 28 30 31 32 32 35 36
40 39 36 36 35 36 34 29 27 24 23 24 24 25 26 28 29 28 27 28 31 31 30 30 29 29 27 29 33 38 38 41
41 47 45 40 42 41 37 35 33 27 27 28 28 28 27 27 29 28 28 27 29 31 31 30 31 32 32 34 38 42 43 45

GFSFLT1_500_spd_090.txt.gz
Wind_Speed
26 30 24 20 18 19 20 21 22 24 20 20 18 20 23 20 17 18 22 26 25 29 33 32 36 47 41 37 38 34 32 36
25 26 20 19 17 18 17 19 21 23 19 17 18 19 22 22 21 20 19 28 29 27 33 32 39 45 53 43 40 29 33 31
24 21 18 18 17 16 15 16 20 21 17 13 15 20 17 18 22 25 24 26 26 28 29 22 30 43 53 36 28 25 29 25
20 15 17 17 15 14 13 13 14 18 13 12 14 17 18 23 18 20 12 19 24 21 25 33 38 48 45 38 25 25 25 23
18 12 15 15 14 14 12 13 12 14 11 9 12 16 21 16 14 13 14 20 33 34 30 32 32 30 30 22 20 20 17 17
19 13 14 13 14 14 13 13 10 9 11 10 13 19 19 15 10 14 14 10 18 25 25 22 19 18 17 17 16 13 14 16
19 15 13 11 10 13 12 10 9 12 12 13 9 16 19 14 11 11 8 9 16 19 22 19 15 12 14 16 17 16 14 19
18 16 12 9 8 12 11 9 7 8 9 9 9 10 15 16 9 8 10 11 8 11 17 16 15 16 14 17 16 15 16 16
18 19 14 11 9 9 10 8 6 7 8 5 4 4 6 10 8 9 11 12 12 13 16 18 16 14 15 15 15 14 14 13
19 22 17 13 11 7 8 9 6 6 9 6 4 1 3 4 7 10 13 14 16 15 14 12 13 15 15 15 13 12 13 16
17 22 19 17 14 10 9 9 8 9 7 7 4 2 2 4 5 6 7 9 13 14 14 13 14 16 17 15 16 17 17 18
19 20 21 21 17 13 11 9 10 8 9 9 9 7 5 5 6 7 8 9 10 12 12 13 14 16 17 16 17 19 20 21
20 20 22 23 21 17 15 11 9 7 7 9 11 13 12 11 11 10 10 12 12 11 12 13 17 20 20 20 21 26 25 27
20 22 25 23 23 22 19 14 12 8 7 8 8 8 11 15 16 15 15 16 15 12 14 16 19 22 24 27 29 29 29 25
22 23 25 24 25 25 20 18 16 14 12 13 13 12 13 14 15 15 18 20 20 16 17 15 14 18 21 23 28 28 27 28
24 23 26 27 27 24 23 23 20 18 18 16 18 19 17 16 15 16 18 19 20 21 21 20 19 20 19 22 24 28 32 30
28 30 28 29 31 28 27 28 26 24 22 21 21 19 19 18 19 18 21 23 25 28 27 27 27 27 27 28 29 30 32 34
39 37 32 30 32 33 31 29 27 27 27 27 24 22 22 21 23 22 20 21 24 26 27 29 30 30 28 30 32 34 34 36
39 34 36 39 36 36 34 31 30 31 33 32 30 26 26 27 27 26 24 24 25 26 27 28 29 28 28 31 35 37 37 39

GFSFLT1_500_spd_093.txt.gz
Wind_Speed
22 26 28 26 20 20 19 19 18 18 21 21 23 22 22 25 23 20 20 24 21 22 23 25 35 33 38 36 32 32 34 32
24 18 27 21 17 18 19 17 16 19 22 23 21 22 23 25 21 23 19 22 23 23 24 26 28 31 32 35 37 39 36 30
22 14 24 16 16 17 16 14 14 17 19 20 16 18 20 22 18 22 24 26 19 23 24 26 30 23 24 26 32 36 35 30
21 13 23 16 15 16 13 13 13 15 18 20 15 15 18 20 20 20 25 24 19 23 23 25 23 22 21 22 28 39 43 35
19 12 20 18 15 15 13 14 14 13 14 13 14 16 18 20 19 26 23 20 22 26 28 23 26 26 25 33 38 41 45 35
21 15 19 21 14 15 14 12 14 14 14 14 13 16 18 19 16 17 20 21 13 20 27 27 24 31 37 38 38 42 32 23
22 14 20 20 14 14 12 10 12 14 12 12 14 16 18 19 15 10 13 14 12 18 28 28 30 31 32 34 32 25 21 20
16 9 20 15 14 12 10 9 10 13 11 10 14 7 12 11 11 13 8 9 13 15 17 21 22 21 23 24 22 22 22 22
16 10 15 13 15 12 10 9 9 11 12 7 7 10 7 12 12 11 12 11 12 12 21 24 23 23 24 24 24 22 25 22
19 12 15 16 15 14 11 8 7 8 10 5 4 3 3 6 5 9 14 17 16 15 17 21 24 23 23 23 23 24 21 19
22 15 15 18 18 15 13 11 8 7 8 7 2 3 1 2 3 4 5 9 14 17 15 16 16 17 20 22 21 20 18 18
27 18 18 18 19 16 15 13 10 8 4 6 7 4 3 2 3 3 5 8 11 14 16 18 18 19 19 20 22 23 22 22
27 18 15 17 17 17 16 14 12 10 7 4 4 9 8 8 7 6 6 8 11 12 13 14 13 13 14 17 19 19 20 21
29 19 16 16 17 19 19 17 15 13 12 10 6 4 6 8 11 12 12 12 13 14 15 16 15 16 19 21 21 22 22 25
19 21 20 16 18 19 20 21 20 18 16 15 13 12 11 9 9 12 16 18 18 19 19 18 18 18 16 20 23 26 28 29
25 27 23 19 21 23 21 24 23 21 20 19 18 17 16 13 13 13 17 19 20 21 22 23 22 21 19 19 22 26 27 31
20 23 29 27 20 24 24 25 25 25 23 22 24 22 20 20 19 17 16 18 22 26 26 26 27 26 25 25 26 28 29 30
29 32 27 27 25 25 26 27 29 28 27 25 26 26 25 24 23 22 21 21 21 22 25 28 28 30 30 30 32 33 31 33
40 40 37 34 33 32 31 28 30 33 34 31 29 28 31 30 29 27 27 28 26 23 22 25 26 25 27 29 31 31 31 33

GFSFLT1_500_spd_099.txt.gz
Wind_Speed
38 40 33 28 30 31 29 28 25 22 22 22 22 20 22 25 30 32 24 21 19 18 21 31 30 35 38 31 27 28 26 30
37 41 35 29 29 31 27 28 21 22 23 21 21 21 23 28 29 31 27 22 22 18 23 33 35 29 25 30 32 29 29 32
39 38 38 27 26 28 27 26 20 22 23 21 22 22 24 25 25 25 25 23 24 22 27 29 26 22 26 27 35 33 30 30
41 36 33 26 22 27 28 23 20 21 23 23 24 22 23 22 24 21 23 22 25 32 28 29 30 29 25 27 33 36 32 32
42 35 33 24 21 26 28 21 19 22 24 23 24 23 24 21 20 18 21 23 26 24 24 26 31 28 32 30 31 35 36 34
44 38 34 26 25 26 28 23 20 22 22 22 22 21 21 21 25 20 21 24 24 23 27 30 30 28 31 36 30 31 31 23
43 39 35 31 28 27 29 23 21 21 20 20 21 20 20 23 24 22 24 27 25 29 33 32 35 34 33 37 28 33 28 26
42 34 31 30 29 26 29 24 20 21 18 18 19 18 17 20 18 20 23 27 27 26 31 34 36 34 41 43 37 33 26 30
42 32 35 28 31 28 28 22 21 20 17 16 17 16 14 16 16 16 19 20 16 18 25 30 33 34 37 35 31 34 28 31
40 34 31 24 29 24 24 22 22 19 16 15 16 14 13 11 12 12 16 13 13 13 22 29 32 34 35 35 41 49 37 36
36 34 28 24 26 25 23 19 22 19 17 16 15 15 11 10 6 3 7 10 17 18 20 21 25 32 34 39 40 41 42 40
37 35 31 28 27 25 21 21 23 21 18 17 17 15 12 11 10 6 6 5 6 10 13 15 17 23 29 37 37 33 31 29
39 34 34 27 21 24 23 25 24 22 20 18 18 17 14 13 12 12 9 6 5 7 6 8 8 12 28 22 28 26 23 25
39 40 33 24 22 26 26 27 27 25 23 22 19 20 17 15 15 16 14 10 9 9 8 10 10 11 11 14 16 16 19 21
39 32 31 27 24 25 28 27 30 28 26 25 22 21 20 16 14 15 15 16 15 13 13 14 15 15 16 18 18 18 20 24
37 35 36 35 29 32 32 30 34 31 28 27 25 24 24 21 17 17 15 14 16 18 19 19 20 20 21 22 23 24 26 28
40 35 31 34 34 32 33 31 30 33 30 29 31 28 27 27 25 23 21 20 20 20 20 21 22 24 26 26 26 27 28 28
44 39 37 31 27 29 31 30 31 33 34 33 33 32 31 31 31 29 26 26 25 24 23 23 24 25 27 29 31 33 34 35
19 27 30 30 32 30 29 33 35 32 32 31 35 35 34 33 33 33 32 31 29 28 28 28 27 25 27 28 32 36 37 39

GFSFLT1_500_spd_102.txt.gz
Wind_Speed
39 39 33 34 33 31 33 31 30 30 27 27 22 20 20 21 23 24 28 31 27 24 23 20 25 34 37 32 40 30 32 31
43 42 37 34 33 31 35 34 31 29 27 26 20 19 20 21 23 23 28 27 25 25 24 23 22 29 33 33 39 33 29 25
48 45 37 32 33 30 40 40 33 28 27 26 20 20 21 22 23 22 28 23 22 24 24 20 15 24 30 36 40 29 27 28
42 39 35 31 31 28 38 38 35 27 28 27 21 21 21 23 24 23 25 21 22 24 23 22 24 27 26 30 37 32 31 28
39 37 35 30 30 28 40 40 34 27 29 25 21 20 20 23 23 23 24 20 21 26 22 29 17 24 24 25 26 28 32 32
38 38 35 36 35 32 38 39 33 26 30 23 20 19 21 22 24 22 26 21 20 23 26 24 25 30 30 27 27 24 25 28
41 40 41 37 35 33 38 37 34 27 29 22 19 19 19 20 24 24 26 19 21 24 28 25 25 24 27 23 21 26 25 25
44 45 41 37 35 35 38 37 34 30 26 21 18 18 18 19 20 25 18 18 21 26 27 27 29 27 28 31 31 32 27 31
45 48 41 36 37 37 38 34 35 31 26 21 19 17 16 18 18 20 13 16 19 26 30 28 31 32 34 36 36 43 36 37
46 45 37 37 39 33 35 33 35 30 26 21 18 16 15 16 16 14 9 13 21 23 28 29 33 31 35 33 30 34 42 34
39 39 40 42 41 38 34 33 30 32 25 21 18 16 15 16 14 11 5 7 11 18 15 15 21 25 27 31 34 35 39 34
35 36 41 47 42 35 33 31 28 31 25 21 19 16 14 14 15 11 8 7 9 13 9 13 16 21 30 37 36 37 28 29
28 34 44 42 36 29 30 29 30 30 26 22 21 18 15 14 15 14 9 7 7 9 9 7 9 12 20 22 28 30 23 30
29 37 34 39 33 34 33 31 32 30 27 24 24 21 18 15 14 16 15 12 9 9 9 8 7 6 6 8 19 14 12 17
31 31 38 38 37 34 35 33 32 31 29 26 26 24 21 19 15 16 15 16 15 12 11 11 11 9 9 10 9 13 15 16
36 38 43 44 41 36 34 30 30 30 30 28 29 26 24 23 20 20 16 15 16 13 12 13 15 15 15 15 16 18 20 21
42 44 36 41 33 32 34 30 30 29 30 30 29 29 29 28 26 25 23 20 20 19 18 16 14 17 19 20 20 22 24 25
42 42 36 37 34 33 34 30 29 28 31 33 33 31 32 33 31 28 28 26 25 24 23 22 21 18 18 20 23 24 26 27
43 41 42 37 34 36 32 30 32 30 30 32 31 35 36 35 34 33 32 32 30 29 29 29 28 25 24 23 24 25 26 28

GFSFLT1_500_spd_105.txt.gz
Wind_Speed
45 43 43 41 35 31 30 30 29 28 29 30 29 28 26 24 22 22 22 22 26 27 26 22 24 16 21 24 35 40 35 37
46 47 46 44 39 36 31 32 31 30 30 31 31 28 25 25 23 23 23 22 25 27 24 22 20 23 21 27 34 32 37 33
46 48 48 46 43 39 35 35 32 32 34 32 33 29 26 25 24 23 23 25 26 27 25 22 20 24 22 31 33 32 40 31
46 47 47 47 44 40 36 36 33 35 35 32 33 30 25 26 24 22 24 24 23 26 25 21 22 21 19 22 27 32 38 35
44 46 49 47 43 41 36 35 33 38 37 35 35 30 26 25 23 22 25 25 21 26 25 22 22 20 17 20 24 26 32 32
41 42 43 43 41 40 35 35 35 39 38 36 35 31 26 24 23 23 26 27 24 26 25 20 25 22 16 15 23 34 36 33
40 41 39 38 37 36 31 33 37 37 36 36 36 31 27 22 22 23 26 25 27 26 25 19 27 18 19 16 23 27 26 23
46 45 43 40 40 37 32 33 38 36 36 38 38 29 26 20 21 22 22 25 27 23 24 22 20 26 21 17 27 24 25 21
47 46 45 45 42 42 33 37 40 38 38 38 37 30 24 19 19 17 19 24 19 21 22 21 23 26 23 23 24 28 32 25
50 49 48 47 45 43 35 40 45 40 40 39 33 30 23 20 18 14 16 16 14 17 17 20 25 29 31 28 29 32 26 23
48 48 47 48 47 40 39 41 46 42 43 40 32 29 23 21 17 12 12 13 8 9 15 20 24 29 33 32 32 32 29 27
50 46 51 47 41 38 44 45 46 45 45 33 33 30 25 21 17 11 10 11 9 9 10 14 14 15 21 22 26 27 28 29
50 48 40 35 36 41 46 47 44 44 38 35 33 30 26 21 18 12 11 11 12 7 7 3 7 11 10 17 26 31 34 34
39 40 26 30 32 42 46 45 42 36 33 34 33 31 28 22 19 14 11 10 12 12 9 4 5 6 5 6 14 19 24 27
20 27 28 28 33 44 47 39 34 31 32 33 34 31 29 24 20 18 14 11 11 13 13 10 7 6 6 9 6 12 15 11
27 25 28 29 34 41 43 39 35 32 33 34 35 33 29 26 23 21 18 15 11 12 13 13 14 14 13 11 11 12 13 13
18 13 22 38 28 44 42 40 33 34 31 34 34 32 31 29 27 25 21 19 18 15 12 12 14 15 16 17 16 16 15 16
11 33 28 37 38 43 40 36 34 33 35 36 37 34 32 31 30 28 26 25 23 22 20 17 16 15 15 16 18 20 20 20
24 30 36 44 42 41 41 39 35 34 33 33 34 32 32 32 32 31 29 28 28 27 27 26 25 24 22 21 20 20 21 21

GFSFLT1_500_spd_108.txt.gz
Wind_Speed
43 44 43 42 39 37 35 34 36 37 33 27 28 27 27 28 29 28 26 24 25 25 26 26 27 26 20 19 26 29 34 36
47 44 43 43 42 41 38 38 37 38 35 30 31 29 30 29 30 29 27 25 26 27 28 28 26 23 21 17 16 21 31 40
44 43 43 44 44 43 41 39 38 39 37 34 33 32 33 30 32 29 28 27 27 28 29 28 26 25 19 22 19 25 26 32
44 45 45 45 45 45 43 41 39 39 41 39 36 33 30 30 33 30 30 28 28 28 28 28 27 23 21 21 23 24 33 36
44 46 46 47 47 46 45 43 41 39 41 42 38 35 31 31 32 30 30 28 29 28 29 27 28 22 21 24 23 22 28 34
44 46 46 45 45 44 46 45 42 40 42 43 40 36 31 31 32 30 29 29 30 30 31 30 27 26 25 23 14 21 29 32
43 44 44 43 43 43 44 43 44 42 42 44 41 37 34 32 30 30 29 29 31 29 30 32 28 26 26 26 21 19 24 23
44 45 44 42 40 40 42 41 39 40 43 46 42 38 37 33 29 29 27 29 28 27 33 27 23 25 28 21 18 18 19 20
45 46 48 46 45 45 46 43 39 41 44 47 42 40 40 33 29 28 27 26 25 27 24 20 22 26 25 24 20 14 20 21
45 48 48 47 47 46 44 44 43 42 47 48 43 44 41 34 28 29 25 23 23 20 19 18 23 26 27 27 26 19 21 24
43 47 48 50 49 46 48 46 44 43 48 50 46 47 42 33 29 29 25 22 19 15 15 19 21 24 25 27 27 25 23 24
46 47 50 52 48 46 48 46 43 42 50 52 49 48 42 34 30 28 24 21 18 13 14 12 17 21 23 26 30 32 30 29
44 44 44 45 46 49 52 51 42 45 53 54 51 48 41 32 31 29 24 20 17 14 12 11 10 17 18 15 21 22 24 31
44 45 45 46 48 51 51 42 41 51 55 53 51 45 40 34 31 30 24 20 18 15 14 11 11 10 11 9 12 17 25 23
44 45 45 49 49 41 37 37 45 51 56 49 47 46 39 37 33 29 25 22 19 17 18 14 11 9 10 11 8 9 20 22
46 47 51 40 37 35 33 39 47 49 47 45 44 40 39 34 32 30 27 23 19 16 15 16 15 13 11 9 9 9 9 11
46 49 42 37 28 27 28 37 47 48 47 46 39 36 36 33 34 32 29 26 22 18 15 14 13 13 12 11 12 11 12 13
39 31 32 36 36 30 34 38 40 46 44 38 33 34 36 35 36 34 32 29 24 23 21 18 17 16 14 14 14 13 15 17
32 29 30 14 47 29 41 41 43 39 41 38 33 34 35 36 36 36 33 30 27 24 23 23 22 20 18 17 16 16 17 18

GFSFLT1_500_spd_111.txt.gz
Wind_Speed
47 44 45 48 40 38 37 35 33 32 36 38 36 36 33 34 34 28 27 27 28 28 29 27 28 26 26 29 28 32 28 33
47 48 51 44 42 41 40 38 35 34 36 38 36 36 35 36 36 32 28 29 30 29 30 30 30 29 26 29 27 25 33 29
49 51 48 45 45 44 43 41 38 36 37 38 38 38 37 36 36 34 31 29 31 31 31 31 32 31 28 30 27 26 18 21
49 48 45 45 45 45 43 43 40 40 38 36 39 39 37 38 35 38 31 29 32 31 32 32 33 32 28 28 24 23 25 23
48 48 46 44 44 45 45 43 41 41 40 37 38 38 37 38 38 39 31 30 31 31 31 33 35 32 30 29 24 26 24 23
49 48 47 45 46 47 46 44 44 44 41 38 38 40 39 40 40 38 31 27 30 31 32 33 37 33 32 30 31 26 24 23
46 47 47 48 48 46 44 44 43 44 42 40 39 41 42 42 40 38 32 27 29 30 32 34 35 34 34 34 30 28 29 27
43 47 49 49 48 44 42 42 42 42 40 39 39 41 44 43 43 39 32 29 28 29 31 33 33 36 37 33 28 30 31 33
42 46 48 47 46 43 41 40 41 42 41 40 39 40 44 44 44 41 35 29 28 28 31 32 33 31 28 25 27 22 22 20
42 46 47 46 45 43 42 40 42 45 43 40 39 41 45 45 46 44 36 29 27 27 30 30 29 25 22 23 26 28 23 17
41 43 43 46 46 45 43 42 43 44 40 40 39 42 45 46 47 47 36 29 27 26 29 28 23 21 20 23 27 28 26 23
38 40 42 45 46 47 42 42 43 43 42 42 42 44 45 48 50 49 37 30 27 27 27 25 19 18 22 25 27 30 28 30
34 38 42 45 46 48 46 44 43 46 45 43 43 44 44 50 51 49 37 30 28 27 27 23 19 18 19 25 27 29 31 34
35 37 39 42 43 43 43 42 43 45 47 45 43 44 45 53 52 49 37 31 29 29 27 23 22 16 16 18 22 22 24 23
36 37 39 40 39 40 44 44 45 45 44 42 41 45 48 55 53 47 39 33 30 30 26 25 22 17 13 13 12 12 14 22
36 36 39 41 42 43 46 47 43 45 43 43 48 54 55 55 52 44 38 36 31 31 26 25 23 21 17 14 13 12 9 11
37 39 42 43 45 48 49 46 47 37 39 43 49 54 55 53 46 43 37 37 34 32 28 24 22 22 21 18 16 14 11 11
39 41 44 49 46 42 39 32 29 36 39 43 50 51 46 44 46 44 38 36 37 34 30 26 21 19 18 16 15 15 15 16
35 37 41 39 32 30 31 33 35 34 36 45 47 47 48 48 49 38 39 38 36 35 31 29 25 23 19 16 15 14 14 14

GFSFLT1_500_spd_114.txt.gz
Wind_Speed
51 48 45 40 41 42 38 37 35 29 31 34 33 32 31 35 32 31 33 31 30 30 25 25 27 28 27 26 28 28 31 31
49 49 45 46 48 42 39 39 35 32 29 32 34 35 30 36 35 33 33 32 33 32 27 26 28 30 30 29 29 32 32 30
50 48 50 50 52 45 42 43 39 36 32 32 36 36 33 36 37 34 32 31 34 32 28 26 28 31 32 30 29 32 31 30
49 50 53 53 49 45 46 44 42 39 36 33 36 33 35 36 35 36 34 34 32 32 30 28 28 31 32 32 29 32 31 28
51 50 56 53 44 46 47 44 40 40 37 37 35 34 36 37 37 36 36 36 31 33 31 28 29 30 32 34 30 29 29 28
53 56 56 52 49 48 48 43 41 42 42 40 37 36 37 37 38 36 35 38 33 33 30 28 28 30 32 35 33 29 31 29
60 59 57 53 51 52 48 45 43 42 42 42 39 37 35 36 39 37 35 37 35 33 30 30 28 29 32 36 35 33 33 30
60 62 51 54 55 53 50 47 43 44 43 41 39 37 36 37 39 39 34 36 35 33 30 30 28 29 32 37 38 35 27 29
39 51 58 59 54 52 52 48 45 44 42 39 38 37 36 36 37 35 32 34 35 33 29 30 29 29 32 36 35 28 24 25
44 53 55 48 47 51 51 47 44 43 40 38 37 39 35 36 38 35 32 34 36 34 29 31 28 28 31 34 27 24 24 23
40 45 48 41 42 45 47 45 42 42 39 38 37 41 39 39 37 37 33 35 39 33 30 30 28 28 30 30 23 22 22 23
31 30 30 38 42 42 41 42 41 42 41 41 36 40 39 38 38 38 35 36 39 35 30 31 28 27 28 27 25 23 22 24
30 34 35 39 40 39 39 41 39 41 39 40 40 39 41 39 40 40 39 37 39 37 30 31 27 26 28 25 25 26 28 27
29 31 31 34 37 38 38 39 41 40 42 42 43 42 43 41 41 39 41 40 40 37 30 32 28 28 29 25 25 23 27 28
25 26 27 29 33 35 37 40 39 39 40 40 42 43 41 42 42 40 43 41 40 38 31 31 28 28 28 23 22 18 13 16
22 23 25 29 31 34 36 37 37 39 39 40 40 39 41 36 37 41 44 43 41 39 33 30 29 29 27 24 21 16 17 16
21 23 24 26 29 33 35 38 39 42 43 45 43 43 42 43 42 46 47 43 41 37 35 32 30 29 26 24 23 19 17 16
22 25 27 29 32 36 38 42 44 45 45 46 45 44 44 46 49 49 46 43 42 38 37 34 32 29 26 21 19 19 20 19
25 27 29 31 36 41 43 44 47 47 42 36 33 36 39 39 41 43 42 42 42 40 41 37 35 30 27 23 21 20 18 17

GFSFLT1_500_spd_120.txt.gz
Wind_Speed
51 51 48 40 35 40 38 35 35 31 31 30 32 30 31 30 28 30 32 32 31 28 27 27 25 25 22 22 24 22 20 22
55 51 50 46 39 39 40 37 37 33 28 28 33 33 35 31 29 32 32 32 31 30 29 29 29 26 27 23 24 24 22 23
56 53 52 49 45 42 41 39 40 37 34 31 34 37 35 33 30 30 30 33 34 32 32 30 30 27 28 25 24 25 25 25
55 53 52 50 48 48 47 45 45 42 40 37 35 35 33 35 34 32 34 38 37 33 33 32 30 27 29 28 25 26 27 26
53 55 54 51 51 52 48 47 45 44 44 41 38 37 37 35 37 37 37 37 38 35 33 33 31 28 29 28 26 26 28 28
51 48 54 57 56 55 56 46 41 50 44 45 39 36 37 34 34 38 38 38 39 39 34 33 32 31 30 28 25 26 29 29
50 53 51 52 53 55 57 53 47 48 45 45 42 41 38 36 36 37 38 39 41 40 37 33 34 33 31 29 26 26 29 29
51 42 45 50 49 50 51 52 55 52 51 46 48 48 42 39 36 39 39 40 42 41 38 35 34 36 32 29 25 26 28 30
53 48 45 47 47 50 49 51 52 51 50 45 47 49 47 44 38 39 40 40 40 40 37 35 35 37 31 30 25 25 28 29
57 54 51 51 48 49 52 55 56 51 48 48 48 50 49 50 42 40 41 41 40 39 35 34 34 34 30 31 25 26 27 28
49 52 51 55 58 60 62 61 63 62 57 49 48 52 50 50 43 41 43 42 40 38 36 33 34 33 30 30 26 26 27 27
47 56 55 47 47 52 51 50 49 46 47 44 45 52 51 51 47 45 46 43 41 38 37 35 36 35 31 30 27 27 27 26
47 48 40 36 33 36 42 40 44 42 46 42 42 47 49 47 46 45 47 44 41 39 39 37 38 35 34 32 28 28 27 26
39 41 39 38 42 44 38 41 43 46 51 42 43 45 44 40 43 49 46 44 41 40 40 40 40 36 34 34 31 29 27 26
30 35 39 39 38 43 42 46 46 46 40 37 36 35 38 41 41 41 43 42 41 40 40 41 43 38 39 36 32 29 27 27
21 22 28 32 34 38 37 32 33 33 35 35 36 36 38 38 39 42 41 41 40 41 43 44 46 41 40 37 34 29 27 28
20 20 19 22 22 26 29 35 38 33 34 34 34 36 39 41 41 43 42 43 43 44 44 46 46 42 42 40 35 29 28 28
19 18 19 20 23 25 29 32 34 37 38 35 38 40 41 42 41 41 41 40 41 42 43 45 45 44 44 40 36 30 29 30
17 20 23 25 27 30 30 31 33 33 32 35 39 40 42 42 41 41 40 41 41 42 44 46 48 48 46 41 36 31 30 31

GFSFLT1_500_spd_126.txt.gz
Wind_Speed
66 66 66 68 67 64 56 45 40 35 38 36 34 35 36 34 35 34 32 29 29 30 30 28 26 23 21 23 24 23 24 24
74 74 70 69 69 66 59 46 39 39 40 39 37 35 37 36 35 36 36 34 34 33 31 30 30 27 26 25 26 25 26 25
72 77 75 71 70 67 62 48 42 40 40 39 39 38 38 38 38 39 39 36 38 38 34 33 33 32 28 28 29 27 26 26
74 78 79 74 72 68 62 54 47 44 41 43 40 41 39 39 40 37 38 40 45 43 37 35 35 34 30 29 30 31 30 28
75 76 79 75 71 69 66 61 53 48 46 45 42 39 40 40 43 44 47 48 47 45 41 38 34 36 34 34 33 32 32 30
72 75 78 76 72 70 68 64 59 52 47 44 43 44 44 46 49 48 49 54 50 49 41 39 36 38 38 38 34 34 32 34
68 71 77 75 72 67 66 65 61 57 49 48 49 50 52 52 52 59 56 51 39 40 39 38 38 39 39 40 38 35 34 36
59 66 72 72 73 71 69 70 67 64 60 56 54 56 53 53 51 51 47 53 47 40 41 39 39 39 36 37 36 37 36 36
54 55 61 67 65 64 67 65 63 64 62 52 55 58 57 53 53 53 53 43 38 38 36 38 40 40 37 37 35 37 37 38
43 48 56 59 64 60 61 59 54 53 50 52 56 57 56 53 51 52 53 55 43 41 43 42 44 43 41 39 39 38 39 39
35 43 47 52 55 58 53 52 55 53 52 50 50 48 49 47 45 42 40 42 43 43 44 42 47 48 47 45 43 40 40 39
32 36 41 46 50 54 54 53 52 52 50 45 43 44 41 41 43 43 43 43 46 43 45 45 49 51 52 49 44 42 40 40
24 36 40 41 45 43 44 46 45 45 48 48 44 47 49 49 51 50 50 51 52 54 55 55 54 55 52 50 45 42 42 40
20 36 26 31 35 44 51 51 47 47 47 51 52 52 52 55 56 53 58 63 57 56 55 52 57 56 53 49 45 45 42 41
21 20 25 27 36 35 37 36 37 43 46 42 45 45 44 46 43 42 48 56 57 56 53 49 54 56 55 51 47 44 43 42
24 24 23 23 23 28 32 34 36 32 28 30 32 36 38 37 40 43 47 50 52 48 48 50 51 50 53 52 48 46 45 45
34 37 40 33 39 37 33 38 36 34 33 31 28 35 43 47 47 47 43 42 47 47 41 40 45 47 45 44 46 47 46 45
22 40 43 24 19 14 18 28 32 28 28 27 34 29 34 34 37 41 44 45 39 42 43 40 39 42 48 48 48 50 47 46
14 14 12 8 10 16 18 19 18 22 23 27 30 33 35 33 32 32 33 36 40 38 38 42 39 38 40 43 48 49 47 46

GFSFLT1_500_spd_129.txt.gz
Wind_Speed
65 64 66 67 69 69 66 62 56 49 47 40 41 40 36 35 35 35 34 34 32 31 31 32 31 26 23 23 24 24 23 21
76 70 69 70 73 72 71 68 61 54 46 42 41 40 36 36 37 37 38 36 35 36 35 35 33 30 28 25 26 25 26 24
88 83 76 76 73 74 75 71 65 57 48 44 41 40 41 38 40 39 39 39 39 41 37 37 38 36 33 29 28 27 27 27
100 97 83 81 81 76 76 73 68 60 49 46 44 45 44 38 36 37 39 41 42 42 40 43 42 39 37 34 29 28 29 29
97 99 90 87 86 84 81 75 72 63 52 48 46 47 43 37 38 40 41 45 48 45 48 49 47 45 39 38 34 30 30 29
71 69 76 90 86 86 84 78 71 65 58 49 47 49 46 41 40 43 46 49 51 49 52 59 56 45 43 38 36 35 31 31
57 62 61 88 83 83 82 77 73 67 60 52 51 49 49 45 44 47 49 51 51 51 55 47 38 45 42 40 39 35 31 31
34 40 53 79 77 77 78 76 74 69 63 55 53 51 51 48 51 51 52 52 53 53 51 50 45 45 46 43 35 32 33 32
23 41 47 55 68 74 74 74 70 69 62 57 53 52 54 54 53 52 54 55 57 56 51 47 52 52 47 37 34 32 34 34
22 33 42 40 49 61 64 67 66 66 59 60 58 57 56 53 55 57 58 58 57 56 52 49 42 42 40 35 36 35 37 36
23 31 30 35 38 56 49 61 65 65 60 61 60 56 54 56 58 55 57 59 58 55 48 44 44 46 41 39 42 39 41 41
15 25 27 27 36 47 61 39 39 52 62 62 51 55 47 53 51 50 53 54 52 46 42 45 43 40 41 42 42 42 44 47
18 21 25 30 35 39 47 54 59 49 41 41 45 45 46 44 42 41 42 42 42 41 41 42 40 42 45 46 49 48 46 50
16 22 27 32 35 37 41 44 47 49 50 51 48 45 43 43 46 43 41 41 47 50 49 47 49 49 51 52 53 54 51 50
11 12 21 30 37 31 33 41 39 45 51 50 42 42 43 48 41 45 48 50 52 53 53 54 55 52 50 53 52 51 54 55
20 12 12 14 26 31 37 37 45 37 29 23 33 43 48 47 41 39 38 42 49 50 51 51 51 51 51 52 52 47 52 54
24 25 28 22 17 20 28 35 28 27 26 28 34 36 32 27 26 29 35 37 42 44 46 45 46 50 50 50 48 46 45 49
23 26 25 26 25 22 25 26 28 29 31 28 29 32 28 27 30 28 31 33 39 47 52 50 48 47 48 43 42 44 46 47
10 20 30 19 25 33 28 32 21 20 21 21 20 23 25 25 27 30 28 32 35 37 40 43 45 46 43 42 44 42 44 47

GFSFLT1_500_spd_132.txt.gz
Wind_Speed
66 63 63 63 66 68 70 70 66 63 59 54 47 47 42 37 34 35 36 35 35 33 32 31 33 29 28 27 26 26 24 24
82 75 74 70 69 71 70 73 71 69 66 62 54 49 41 37 36 37 39 37 36 36 36 36 36 31 33 31 29 28 27 28
90 92 87 84 77 77 75 73 76 75 68 64 56 52 44 40 40 41 40 38 38 40 41 41 39 35 35 35 34 32 31 31
90 88 103 96 90 83 81 76 78 78 72 67 58 57 52 47 44 41 37 40 41 41 43 45 42 41 40 41 41 37 36 34
42 58 86 99 100 90 88 81 80 79 77 71 65 58 52 46 44 41 39 40 43 43 44 45 46 44 44 46 47 45 41 36
54 52 53 61 91 89 92 92 85 82 79 74 69 59 54 50 52 47 42 42 45 46 46 47 48 49 51 52 54 55 48 43
42 42 36 41 66 84 91 94 90 85 76 74 70 62 59 55 53 49 44 44 47 48 48 42 51 52 52 47 47 50 51 47
36 29 23 20 42 61 84 92 88 82 74 72 70 67 59 54 56 54 51 46 47 47 48 49 48 51 44 40 42 38 46 43
26 16 9 22 36 42 67 81 80 74 72 71 70 68 66 57 56 55 50 48 48 48 48 51 51 52 48 45 41 37 44 44
15 5 15 24 30 38 62 71 73 73 72 70 70 69 53 53 54 54 50 51 53 50 52 53 51 53 52 49 44 35 35 44
6 6 8 8 23 43 60 70 71 71 69 64 72 65 60 50 56 55 54 52 55 52 50 52 55 50 48 51 42 34 38 38
12 9 11 13 20 36 54 64 60 67 51 59 58 57 57 51 52 54 56 53 52 52 52 54 53 51 52 48 39 42 41 41
5 6 6 15 23 31 48 59 55 60 69 63 56 53 58 53 52 54 51 53 59 55 50 49 45 42 43 39 42 44 44 46
9 6 4 14 15 23 27 44 45 53 58 59 61 61 60 56 51 60 60 56 49 48 53 45 43 42 41 44 46 46 45 46
4 11 13 13 13 22 32 39 46 41 44 52 50 55 51 44 45 49 49 44 42 41 45 47 44 44 44 48 47 47 49 48
11 10 8 8 24 22 25 29 31 30 36 36 40 41 42 48 48 46 47 43 38 41 43 50 50 50 49 49 52 51 48 53
17 17 13 12 12 17 21 26 42 35 43 38 42 40 46 34 42 42 44 36 30 32 35 39 42 46 47 51 50 50 47 45
14 15 16 19 22 24 22 21 19 31 28 22 25 24 26 28 29 29 28 28 29 30 34 38 43 47 49 50 53 53 50 48
12 3 8 18 23 26 24 18 16 20 21 22 21 25 26 24 28 29 32 33 33 31 32 33 34 36 40 47 50 55 56 53

GFSFLT1_500_spd_135.txt.gz
Wind_Speed
61 59 61 61 62 60 65 64 63 61 58 62 64 60 55 52 48 42 34 34 35 34 33 33 34 32 31 28 27 27 26 26
68 70 69 67 69 68 66 70 67 67 62 65 67 64 57 54 51 43 38 37 36 34 33 34 37 35 32 31 31 31 29 29
74 76 77 78 76 76 74 75 72 72 68 65 68 70 63 54 53 46 44 43 37 32 37 39 40 40 37 32 35 35 35 33
69 75 80 82 87 76 82 81 82 78 73 68 73 74 68 60 60 52 47 44 39 36 40 43 42 43 41 38 37 38 39 39
53 58 61 64 66 73 71 76 88 87 80 76 76 75 72 66 57 54 46 46 43 41 40 45 45 43 45 42 41 41 41 41
51 56 61 65 61 61 61 63 86 93 91 83 78 78 75 70 62 57 51 48 46 46 45 46 47 46 46 47 44 41 41 43
49 52 56 63 70 73 77 82 72 91 94 89 78 78 77 75 67 61 57 49 48 50 50 51 48 44 45 42 47 45 46 49
40 37 44 51 56 62 66 71 78 87 99 91 80 79 78 75 69 62 61 52 50 53 55 54 48 43 41 40 45 38 43 35
36 31 34 29 24 32 38 46 46 77 96 88 64 80 78 77 72 67 64 57 55 56 60 55 51 46 44 44 44 39 38 41
30 29 27 21 16 13 12 28 41 61 90 87 72 77 80 79 74 68 63 62 63 60 59 56 51 49 44 40 42 42 42 44
36 41 25 17 17 13 15 16 24 48 82 85 80 76 78 77 75 68 66 67 69 63 61 57 53 48 43 42 42 45 46 44
29 27 14 24 10 5 9 13 23 43 72 76 75 74 77 78 77 70 68 52 55 56 54 52 49 46 45 46 44 46 47 44
24 17 23 10 12 5 3 13 27 46 63 60 55 71 71 70 74 66 70 51 42 46 49 50 47 46 48 45 48 49 46 44
24 16 18 12 9 24 4 17 31 38 53 50 63 63 55 74 76 73 58 54 45 46 44 48 50 51 52 53 51 44 43 41
16 19 19 11 6 8 14 20 39 31 55 42 61 61 59 63 58 59 42 48 46 47 51 51 52 58 56 52 48 46 46 44
17 16 18 11 4 15 9 14 40 31 36 53 49 48 51 51 64 52 48 47 49 51 51 49 50 46 45 46 48 47 48 48
26 15 12 10 7 8 13 21 15 25 25 29 35 41 48 52 56 59 51 52 56 51 48 48 41 44 45 43 46 49 50 51
22 24 17 9 13 14 6 19 24 21 26 30 37 33 36 38 41 43 46 46 42 50 54 56 42 38 36 36 41 42 43 47
14 14 19 14 12 15 18 18 18 30 23 33 36 37 35 42 49 50 50 50 49 46 37 36 37 36 37 38 38 38 41 43